GFSNGP_925_spd_057.txt.gz
Wind_Speed
12 13 14 16 18 19 13 9 4 11 14 4 10 11 14 13 14 13 12 6 5 9 15 15 21 22 16 38 43 40 42 41 41 40 38 35 37 40 47 37 41 38 34 33
13 12 17 17 17 20 19 16 15 13 16 6 11 12 14 15 15 12 10 5 5 15 24 17 29 29 22 19 41 43 41 42 40 38 40 39 37 37 42 43 37 42 40 37
7 8 13 12 12 16 18 18 11 12 10 10 9 12 10 11 14 17 15 11 10 13 13 22 9 15 27 37 38 41 41 40 41 41 39 40 37 37 37 41 38 35 38 36
4 5 3 9 8 14 18 17 18 19 13 9 6 10 12 7 9 17 22 22 10 9 5 16 13 2 8 11 16 39 42 40 42 41 42 38 38 39 36 35 38 36 35 36
3 4 10 14 12 10 7 10 10 8 12 19 15 11 8 13 19 18 19 20 17 13 19 8 13 9 12 21 34 14 29 40 42 43 41 38 41 39 40 35 34 37 35 35
2 4 6 6 6 13 4 9 9 12 12 16 16 7 5 20 20 20 25 28 23 23 23 21 7 16 28 33 33 29 33 34 39 42 41 42 42 40 35 37 36 31 34 35
7 6 6 12 19 10 3 5 19 17 9 14 9 4 12 15 21 27 28 30 27 22 18 21 16 12 17 14 32 39 40 36 36 42 42 42 38 37 38 34 34 34 33 33
5 3 5 20 13 6 11 19 14 19 17 17 17 20 16 12 18 21 24 30 15 14 18 23 25 21 5 34 45 25 20 30 37 40 39 37 39 36 36 35 33 32 31 29
3 5 13 8 9 13 11 16 18 17 18 18 18 23 21 17 15 21 31 9 12 14 17 19 19 25 26 30 16 17 17 36 36 36 39 35 37 36 33 33 32 30 29 30
5 3 10 14 12 10 14 16 20 21 19 16 17 18 19 16 15 14 10 9 10 10 10 11 17 20 22 24 20 15 19 22 37 32 33 35 34 36 35 34 32 30 30 30
5 10 13 8 13 13 15 15 18 22 22 20 16 19 16 15 18 5 4 6 6 6 7 9 12 16 20 22 19 17 17 24 29 32 34 33 32 33 36 37 38 35 33 31
3 8 9 11 13 17 15 17 19 22 10 13 10 11 14 14 14 7 2 3 4 8 11 13 14 15 18 18 19 18 18 18 25 30 29 30 31 29 35 34 37 39 36 33
4 5 8 11 11 13 14 14 13 16 18 11 12 17 25 9 15 10 6 7 9 10 13 15 17 16 19 20 18 17 15 16 24 30 28 29 28 26 21 24 33 39 40 38
8 4 7 8 6 10 14 15 16 14 17 20 17 19 20 12 10 14 13 12 10 10 11 15 17 20 23 23 24 18 15 13 17 26 25 25 27 27 23 23 20 21 28 36
6 7 10 10 7 5 11 12 11 11 11 15 21 20 21 15 13 14 17 17 15 14 19 19 20 24 27 27 27 19 13 14 15 18 25 26 28 26 25 25 23 27 23 24
6 8 4 7 5 4 5 9 11 11 10 14 17 24 22 18 17 17 20 20 17 16 18 21 22 27 29 30 29 19 12 9 11 21 20 26 27 24 25 25 22 22 22 27
4 3 4 6 3 3 2 2 4 6 10 11 14 17 20 19 17 19 19 19 18 19 16 22 27 29 31 25 26 20 13 6 6 7 4 21 22 13 15 21 21 19 12 18
2 1 4 6 3 3 2 2 2 8 11 15 17 18 17 18 13 18 19 19 20 15 25 28 28 32 27 23 28 23 6 8 14 17 21 25 20 22 25 28 24 22 17 11
1 6 6 7 1 5 3 1 4 4 6 12 15 17 16 16 18 18 19 16 20 22 26 28 27 25 26 22 23 20 8 19 18 24 22 27 21 21 19 23 33 17 21 20
11 10 5 8 5 7 6 4 3 3 2 4 12 14 14 17 18 19 18 17 22 18 23 22 26 25 28 20 24 17 20 21 20 26 24 25 23 23 24 26 28 33 24 24
5 5 8 6 12 8 6 1 1 1 4 7 10 12 11 15 18 19 20 15 26 23 22 25 26 27 22 23 24 26 29 28 23 23 24 24 26 26 27 27 27 26 26 27
5 6 8 10 7 11 8 6 1 2 10 12 12 12 13 19 20 17 21 20 23 23 25 30 28 25 24 27 29 28 31 32 30 28 27 26 26 23 30 29 29 28 28 28
15 5 2 8 9 4 7 3 1 10 12 9 12 10 13 16 18 19 14 26 27 27 27 27 26 26 29 34 31 30 33 32 30 27 26 26 25 27 33 31 30 28 27 27
9 2 2 6 12 11 1 10 7 12 16 16 15 9 10 13 15 15 18 24 26 26 35 33 32 32 29 29 30 29 30 29 27 26 29 29 29 29 29 30 32 31 30 32
6 9 5 8 2 14 14 18 14 15 11 13 12 12 10 11 14 14 17 18 19 22 22 25 30 33 31 27 28 31 30 29 26 28 28 29 30 32 33 33 30 29 28 28
9 11 13 20 8 12 16 19 16 6 16 8 8 7 4 6 9 9 13 15 18 16 21 23 23 24 27 27 25 29 31 33 33 32 29 28 28 28 29 29 30 29 28 25
14 11 13 11 7 8 16 16 15 9 9 13 8 9 7 5 10 9 7 9 15 17 20 20 18 20 21 23 27 31 29 28 30 31 31 30 29 28 26 26 25 24 22 20

GFSNGP_925_spd_060.txt.gz
Wind_Speed
2 4 5 8 14 11 5 4 3 6 6 3 3 7 8 10 10 10 6 5 6 8 12 10 15 17 22 19 33 37 38 38 40 37 39 40 41 42 45 47 42 42 36 32
7 8 9 8 10 12 9 5 5 7 5 5 3 6 8 8 11 14 15 14 10 16 17 25 19 21 23 24 20 35 38 39 38 38 36 37 40 42 43 46 47 43 41 41
3 7 8 7 4 5 8 3 0 4 6 4 8 8 7 10 13 12 11 12 12 12 15 17 21 14 8 23 22 18 34 36 37 37 37 37 35 38 38 41 43 41 40 41
3 4 3 6 7 9 11 3 6 2 7 9 6 3 11 10 11 12 11 13 14 16 19 13 18 6 4 5 18 25 13 30 33 36 36 36 36 36 36 35 38 38 39 40
3 4 7 12 7 7 7 6 12 10 13 9 12 7 5 11 11 12 12 13 20 23 25 26 21 23 8 11 10 12 15 13 19 33 33 35 37 37 36 33 34 37 37 37
2 3 5 1 14 15 12 4 13 13 15 14 11 4 3 13 11 10 21 26 22 30 26 14 14 21 24 22 20 26 24 16 15 11 32 37 37 37 37 37 36 33 35 37
3 4 4 8 15 12 4 4 16 12 14 17 6 4 12 13 16 12 12 23 28 22 19 8 10 16 20 28 25 27 21 16 17 24 25 37 37 36 37 36 34 34 34 35
3 3 5 10 6 2 8 10 14 16 14 18 18 16 15 13 13 18 20 21 20 14 14 10 10 8 10 24 31 30 30 27 27 32 32 35 37 37 37 34 35 35 32 33
6 5 5 2 5 8 8 13 14 18 16 17 21 21 20 18 15 14 20 22 18 17 8 15 8 8 9 13 20 16 24 25 38 38 40 42 39 39 35 35 33 32 33 33
1 5 3 10 8 6 12 14 16 16 17 17 21 19 19 18 17 13 18 19 17 16 8 9 10 9 10 7 13 22 30 35 36 35 35 40 39 41 38 36 36 33 33 32
6 8 6 6 7 9 11 14 14 17 15 17 19 14 15 15 17 20 18 25 18 15 10 12 13 13 6 9 7 15 22 31 32 29 35 35 37 38 40 42 43 39 37 32
5 7 5 9 7 9 10 15 12 13 14 16 17 12 12 12 20 23 21 23 16 14 10 9 12 15 12 12 10 13 17 21 22 25 25 32 31 34 41 39 41 45 40 36
5 5 7 9 8 10 7 12 14 12 13 12 16 18 14 15 25 22 20 18 14 10 6 5 11 13 11 13 14 19 19 22 23 21 23 24 29 27 27 36 39 41 44 41
11 5 9 7 5 6 8 12 17 16 15 14 15 17 17 16 23 19 17 11 6 5 3 3 7 11 11 14 15 19 23 27 27 23 22 26 29 30 28 28 28 30 40 43
8 9 12 8 7 9 11 7 10 12 12 12 16 14 18 16 15 17 16 14 9 4 4 6 9 12 14 13 17 21 25 25 22 22 27 28 27 29 25 27 27 26 28 34
7 7 8 9 12 10 6 4 7 10 11 13 14 14 12 14 14 16 15 16 12 10 11 11 13 16 19 17 17 20 25 25 20 24 26 22 23 23 21 18 18 20 26 28
3 5 5 5 7 6 5 4 5 5 11 12 13 15 14 13 13 15 20 20 15 12 11 12 15 17 17 17 19 24 26 23 17 19 16 19 23 26 23 20 18 17 15 22
8 5 6 6 6 6 3 8 8 7 7 12 15 16 14 13 13 17 18 17 15 12 14 15 16 16 10 14 20 27 27 21 10 9 8 9 14 19 24 21 21 21 21 19
10 10 12 12 11 8 5 8 7 9 10 15 15 15 15 15 16 18 20 15 16 13 18 19 15 10 10 15 25 19 15 4 8 8 12 18 21 20 22 26 24 29 29 28
10 14 15 18 13 12 10 9 10 4 9 10 15 15 16 18 19 19 17 11 17 18 18 15 14 16 16 14 20 13 14 13 13 18 17 17 17 19 21 20 27 18 24 21
9 13 13 12 14 13 12 5 8 0 4 13 13 15 19 20 19 20 19 13 24 24 19 17 21 22 21 17 15 17 20 20 23 22 21 21 20 16 20 26 22 25 25 26
7 7 6 7 1 6 9 4 7 7 5 10 11 11 13 19 19 16 23 23 26 24 23 23 23 25 25 24 13 19 31 29 19 27 23 25 28 24 19 22 31 28 30 33
12 9 13 14 5 8 8 6 15 13 7 5 6 8 11 12 14 16 13 28 27 31 29 30 30 28 30 27 25 29 29 31 28 32 24 24 29 29 29 25 27 33 35 35
1 15 15 10 14 1 6 10 15 14 11 5 2 6 9 12 16 18 20 22 24 26 37 35 30 30 36 27 27 20 30 32 27 27 28 27 27 28 34 35 31 28 34 39
11 8 3 15 13 10 12 15 16 13 11 7 2 6 7 10 11 16 19 20 17 24 23 31 36 30 27 27 23 25 32 31 24 21 28 30 31 34 37 35 33 33 35 36
10 8 9 14 13 4 14 14 15 12 10 8 5 3 8 11 14 14 13 19 20 16 16 16 18 26 32 30 24 26 29 31 25 25 29 29 29 29 30 32 32 32 32 32
6 9 13 10 5 10 7 10 7 6 11 9 5 5 5 8 14 16 13 12 15 14 20 18 16 22 23 25 33 36 33 31 29 28 26 28 31 30 29 29 29 28 26 25

GFSNGP_925_spd_063.txt.gz
Wind_Speed
3 2 2 1 4 5 4 2 1 3 4 7 8 8 8 10 14 17 16 16 14 11 9 13 17 18 18 22 31 33 30 30 34 35 38 41 40 42 43 43 41 38 34 33
5 5 4 3 4 5 7 5 6 6 1 6 6 8 13 12 13 14 13 13 12 13 18 17 19 19 22 23 27 34 37 35 34 33 34 37 40 41 40 42 45 43 41 37
4 6 7 5 6 5 2 1 3 4 4 8 9 13 9 10 12 12 12 13 11 9 12 23 19 16 16 12 21 27 34 35 37 36 34 37 39 38 39 40 40 41 46 44
1 5 2 4 7 8 1 7 8 6 9 9 8 10 4 5 9 14 14 13 12 16 20 23 28 21 21 14 6 15 27 31 33 33 36 34 34 37 39 37 39 39 38 40
3 2 5 2 5 5 4 2 7 6 8 10 18 12 7 6 11 11 12 17 18 18 24 29 26 22 24 21 13 6 15 20 31 36 35 34 34 35 36 33 33 35 37 37
2 3 4 0 5 7 2 5 6 10 7 7 7 5 6 12 19 21 24 22 23 25 26 27 24 26 24 20 14 16 15 14 13 25 31 33 35 34 33 33 34 32 33 38
3 3 3 3 9 5 5 2 8 9 11 10 9 6 16 20 22 25 29 30 29 24 23 25 27 21 22 16 15 15 13 9 10 17 15 25 30 33 30 31 29 28 31 33
2 1 6 4 4 1 4 6 11 16 16 16 15 14 17 19 17 26 26 31 33 27 26 24 28 23 20 19 20 19 15 14 10 15 21 17 19 28 30 29 29 30 29 29
7 5 3 4 5 6 4 9 13 16 16 14 17 16 13 19 16 19 26 28 30 31 29 27 26 29 17 24 26 22 20 19 18 17 17 22 25 26 28 30 30 29 29 30
3 4 4 2 2 3 6 8 10 14 14 13 18 16 15 16 10 14 20 25 28 28 32 30 25 25 32 27 25 23 20 16 16 15 18 18 29 31 31 29 30 30 29 28
4 9 7 7 6 7 7 7 9 15 14 13 14 15 14 13 9 11 15 24 29 29 28 31 29 29 32 29 23 24 19 11 16 14 16 18 20 23 27 33 34 32 33 30
6 7 5 5 5 6 9 8 9 13 15 14 14 13 16 13 16 15 15 24 29 32 31 31 29 31 28 27 22 19 19 14 15 19 18 18 15 24 26 38 38 41 40 36
5 5 7 7 6 10 8 10 10 10 16 14 20 17 20 15 16 20 19 16 21 26 29 28 26 24 23 22 21 20 20 17 17 22 24 24 22 12 18 34 39 41 42 44
8 2 6 8 7 6 10 14 14 12 17 16 16 18 20 18 18 16 18 17 21 25 14 15 13 18 16 16 17 18 22 22 14 21 19 22 25 26 21 14 19 28 44 44
9 10 11 7 6 7 12 10 7 6 9 12 15 16 17 16 15 17 21 20 19 18 18 20 13 18 15 17 16 15 21 23 21 21 22 23 24 24 25 25 25 27 28 38
7 8 7 8 10 7 7 6 7 7 8 10 11 15 18 18 16 18 19 18 17 14 17 20 18 17 16 18 18 19 19 22 24 24 25 23 25 25 27 27 27 25 24 29
5 6 5 6 5 6 6 6 8 7 13 15 18 15 18 18 16 17 20 19 17 18 17 20 21 19 19 21 19 21 20 22 22 23 27 25 25 26 25 23 24 24 26 28
9 5 6 6 5 6 7 8 12 13 13 18 20 21 16 17 15 16 20 24 21 18 17 19 22 21 20 18 19 20 19 20 25 24 24 24 27 28 25 24 23 24 26 26
12 11 14 8 12 10 9 11 11 10 14 14 16 18 17 16 19 20 21 20 18 19 21 25 22 20 15 16 16 16 20 25 25 23 21 26 28 27 22 22 25 27 27 26
9 14 13 12 13 12 13 14 8 2 5 9 15 16 16 16 16 19 20 17 21 22 24 22 19 14 12 9 8 3 5 6 4 9 13 13 9 9 9 14 20 23 23 24
9 12 12 13 15 14 12 10 5 3 4 5 8 11 13 18 21 21 21 15 27 25 23 20 16 11 9 6 9 11 10 13 14 9 0 10 11 14 19 19 16 18 23 27
10 9 10 12 11 11 5 6 7 6 4 4 5 9 13 16 19 17 24 23 29 27 25 24 18 14 13 17 20 22 20 22 22 18 12 13 19 18 21 23 21 23 23 23
8 7 10 9 9 7 5 10 13 8 5 1 2 8 11 13 15 17 12 28 27 31 28 27 26 21 21 26 23 25 28 27 28 27 21 13 18 26 25 24 28 27 23 29
6 3 4 4 4 4 8 13 14 9 5 1 4 8 10 12 16 15 19 15 22 28 32 30 30 31 29 30 25 27 34 33 30 32 22 20 16 26 29 30 32 35 34 36
6 0 6 5 4 7 13 17 14 10 6 4 6 10 13 14 10 14 10 15 14 19 25 31 30 31 33 31 31 35 37 37 32 37 21 27 10 34 37 37 32 31 36 36
4 8 4 3 7 9 17 18 15 10 7 7 8 10 13 14 13 13 15 12 11 8 13 19 26 30 29 33 33 31 32 37 31 29 15 19 31 39 38 35 27 34 35 33
6 5 3 3 14 9 7 9 10 11 6 6 1 8 10 10 14 15 13 17 11 14 11 11 15 24 26 27 30 31 31 32 28 28 26 33 34 36 34 32 28 29 31 29

GFSNGP_925_spd_069.txt.gz
Wind_Speed
7 5 2 3 1 4 5 4 2 10 8 6 8 9 9 10 12 15 15 16 16 14 19 22 25 22 18 14 9 15 21 23 26 29 33 37 33 30 31 29 31 34 29 26
3 4 3 3 4 2 1 1 3 5 6 3 5 4 7 10 11 13 15 15 14 17 20 21 23 24 20 19 19 15 17 25 25 25 26 27 30 36 30 31 32 30 30 29
4 3 2 5 1 2 4 5 2 5 5 6 4 9 10 10 8 11 14 16 16 16 21 22 24 26 22 22 21 18 16 19 24 24 25 27 28 27 28 29 30 29 30 31
4 4 5 5 3 2 4 7 5 4 6 7 8 12 14 5 5 11 15 16 17 21 23 24 27 28 27 24 22 21 17 10 18 23 25 25 24 27 28 28 28 30 29 31
4 5 2 3 1 1 1 4 5 4 8 8 12 11 1 5 11 15 18 20 20 21 23 25 24 25 30 27 23 20 18 14 9 17 21 23 25 26 26 24 25 28 28 29
3 3 6 5 5 1 2 4 3 3 6 10 11 5 2 9 24 26 25 25 25 25 23 22 23 24 25 25 24 21 21 19 14 10 13 19 22 24 24 23 24 24 25 26
3 3 1 6 4 4 3 4 1 2 4 6 6 7 16 22 21 22 23 26 28 27 23 21 21 23 25 27 24 25 22 19 19 16 11 12 14 19 21 23 23 23 25 26
2 2 5 10 6 5 4 4 3 1 3 5 9 13 16 18 18 21 24 24 23 25 28 24 21 21 23 25 32 28 30 23 19 22 18 12 10 14 18 23 25 25 25 26
6 3 2 8 2 4 3 3 2 1 4 7 10 13 16 16 20 23 24 24 23 24 24 28 23 21 24 25 25 31 29 26 24 20 21 17 13 12 15 19 25 23 23 24
1 6 10 9 7 4 6 4 5 4 5 7 9 13 17 14 19 23 25 25 26 26 26 27 27 26 27 27 26 26 30 28 28 22 21 18 17 15 14 20 21 23 24 25
5 7 4 9 11 8 10 8 8 9 10 9 9 12 14 14 19 23 22 22 24 25 27 29 28 31 30 31 29 28 27 28 25 25 21 20 18 18 17 20 23 27 27 26
5 7 3 4 8 11 10 11 10 8 8 10 12 11 15 16 16 18 21 23 24 25 26 28 31 32 33 29 28 29 29 27 23 20 20 22 21 23 23 25 25 28 34 34
3 7 4 6 8 10 9 9 9 8 9 9 11 13 15 19 21 22 22 23 24 26 25 26 29 30 29 30 27 27 29 25 22 21 20 21 23 23 23 19 20 23 26 32
6 9 5 9 6 12 13 8 6 9 11 12 13 14 17 21 24 24 23 20 26 27 25 27 28 29 26 28 25 24 26 24 23 20 19 22 21 24 23 22 20 19 17 20
14 13 3 4 6 8 8 7 8 9 10 10 10 10 15 21 24 26 22 22 26 27 27 25 27 27 24 27 25 23 24 23 22 21 23 25 24 26 25 24 22 23 22 24
14 14 12 12 11 9 10 9 9 9 8 8 7 9 14 17 19 21 23 23 22 24 28 29 29 27 25 26 24 21 24 26 27 24 22 22 24 24 23 24 23 25 24 27
9 10 12 13 11 11 12 12 10 9 7 6 5 5 9 14 17 19 22 24 26 25 26 26 28 28 26 24 25 26 24 25 26 24 23 23 23 23 24 23 23 26 29 26
13 10 10 9 9 9 9 12 10 10 9 5 3 3 7 12 15 20 23 23 27 27 26 27 26 27 28 27 26 26 25 25 25 25 24 24 25 26 25 25 26 28 29 27
15 14 14 14 14 13 10 10 11 8 9 9 5 2 4 9 13 19 23 23 22 27 31 29 27 27 26 22 23 23 26 26 26 26 26 25 25 26 26 27 24 29 28 23
13 15 13 14 15 16 15 13 9 9 11 10 6 2 4 8 13 16 22 22 19 28 33 31 29 28 26 22 20 20 22 24 24 23 23 24 25 27 27 29 30 31 27 24
10 13 15 14 13 14 16 13 10 13 14 12 8 4 6 9 11 15 13 18 26 31 31 26 26 25 21 18 12 12 16 20 18 18 19 21 22 21 21 22 26 27 25 24
8 7 10 11 9 12 11 12 13 14 15 12 8 6 8 11 14 15 7 16 26 31 29 27 26 24 20 18 17 15 9 8 11 10 10 14 15 15 13 12 11 13 13 14
8 8 6 1 5 8 2 9 13 16 14 11 7 6 6 10 12 11 10 9 22 27 28 31 32 28 25 24 21 21 20 16 12 9 7 6 8 10 10 11 11 11 10 11
9 7 6 7 3 2 2 7 12 14 12 8 5 5 6 11 12 9 8 2 12 20 24 28 34 34 31 28 31 30 27 27 21 17 13 8 4 9 16 20 22 23 24 25
6 5 8 10 6 5 5 9 10 10 10 7 3 3 4 4 6 10 7 3 1 12 19 23 25 28 30 31 35 36 29 29 30 24 19 14 10 13 23 26 25 26 27 29
6 6 6 6 4 4 4 11 12 10 8 5 3 2 2 5 5 4 6 3 3 3 9 18 22 24 24 26 29 36 39 35 33 37 33 23 14 17 26 32 33 34 32 36
8 9 8 5 9 14 9 5 4 6 4 4 4 4 4 7 8 8 9 6 5 5 6 5 14 20 20 20 22 25 27 37 37 33 33 33 26 17 32 35 36 35 37 37

GFSNGP_925_spd_072.txt.gz
Wind_Speed
6 6 4 3 3 2 1 5 7 17 16 13 11 11 11 11 12 13 15 16 15 14 16 17 20 22 18 18 16 11 12 15 18 18 20 22 23 23 23 23 23 24 24 23
3 1 1 5 3 2 2 3 6 12 14 10 8 8 8 9 10 12 13 12 14 17 19 19 18 18 18 20 18 19 12 12 17 18 18 19 20 23 25 25 24 24 24 25
9 3 3 8 10 5 6 2 1 10 13 5 7 5 6 6 6 10 12 13 14 12 16 19 20 19 20 22 18 17 19 15 10 17 18 18 19 20 21 25 28 28 27 27
3 6 8 7 4 2 4 6 6 10 8 5 2 3 3 8 8 10 12 13 14 17 17 18 18 17 18 18 18 19 22 22 18 10 15 16 18 20 22 24 25 28 30 30
4 10 4 7 6 6 11 9 3 4 4 3 4 5 10 7 9 11 13 14 15 17 18 18 18 18 19 21 18 18 20 22 21 21 9 8 18 20 22 23 25 26 28 29
4 4 5 10 6 3 3 6 7 3 3 4 6 6 10 10 14 15 15 17 18 18 17 16 17 18 19 18 17 18 22 21 20 20 22 12 18 20 23 25 25 24 26 28
7 5 1 7 6 4 7 5 8 3 2 2 3 5 10 13 13 14 15 16 18 20 18 16 16 18 18 18 17 18 20 22 23 21 22 19 21 20 21 23 25 25 25 26
5 4 6 11 6 4 7 6 5 3 1 1 3 4 7 10 12 15 16 17 17 18 19 20 19 18 19 19 19 21 23 24 22 21 20 20 21 22 17 21 25 25 25 25
4 1 2 12 3 5 3 4 4 3 2 1 3 5 8 9 11 13 15 17 18 18 20 20 20 20 21 21 22 23 24 25 25 22 21 21 21 19 20 21 23 24 23 25
2 5 8 11 7 5 5 5 5 4 2 2 4 6 8 8 10 12 13 16 17 18 20 20 19 21 24 25 24 25 27 26 27 25 23 22 22 21 20 21 23 19 22 24
7 9 4 11 12 9 9 7 6 5 4 4 5 6 7 8 11 14 14 15 16 17 19 23 24 23 22 24 27 28 28 27 26 25 25 25 24 24 23 22 25 19 22 21
6 7 10 3 14 14 11 11 8 6 6 6 6 6 8 10 13 15 18 19 19 19 20 24 25 25 25 24 25 28 28 27 25 25 24 25 24 26 27 28 28 28 34 35
5 6 7 6 8 14 13 11 11 10 8 7 7 8 9 11 14 15 17 19 21 19 20 25 25 26 27 26 24 25 26 28 27 26 26 25 25 25 27 27 27 28 31 32
7 7 7 9 8 12 12 11 10 10 9 9 9 9 9 11 14 16 17 17 19 20 21 22 25 27 25 27 28 26 25 27 28 28 24 25 26 28 26 27 25 26 25 26
12 13 5 8 11 9 14 13 10 10 11 10 9 9 8 10 12 13 13 15 18 20 22 23 25 27 26 27 30 30 28 26 25 26 26 27 28 29 30 30 30 29 27 26
12 14 13 10 10 11 12 12 13 10 9 9 7 7 8 8 9 12 14 14 16 19 24 25 26 26 27 27 29 30 28 28 27 28 28 27 26 30 30 30 32 29 29 28
7 12 14 14 14 14 14 12 14 12 11 9 9 7 7 7 9 9 12 15 17 23 24 22 27 30 30 29 29 29 28 27 27 28 28 28 29 29 31 29 26 30 31 29
7 14 15 15 13 14 14 14 15 16 13 11 9 8 8 6 6 7 11 15 19 24 23 23 28 29 28 27 28 29 30 30 29 28 28 28 28 27 27 28 29 28 32 30
16 16 19 15 16 15 15 16 15 16 15 12 11 12 8 7 6 9 11 14 20 26 29 29 30 29 28 27 28 29 29 29 30 29 29 29 30 30 30 28 29 30 30 29
14 16 19 18 19 19 18 19 18 16 13 13 13 10 9 7 7 10 12 9 14 23 28 28 31 29 29 27 26 27 26 26 26 27 28 28 29 30 29 30 30 31 30 31
6 8 11 13 15 18 21 21 20 19 16 17 15 11 8 6 9 11 11 8 12 21 23 25 29 29 23 23 20 18 20 22 24 25 26 26 27 29 30 29 27 30 31 30
8 10 12 14 14 16 16 19 19 18 17 18 15 11 7 8 8 10 8 5 9 17 18 22 26 30 27 21 20 19 17 17 16 16 18 20 23 24 26 27 26 28 29 29
6 9 10 9 10 10 9 10 14 18 19 18 15 11 7 6 7 7 9 1 5 12 15 17 21 27 26 25 23 19 18 17 15 14 13 15 16 20 24 25 25 25 27 29
6 5 6 8 10 14 14 12 9 7 13 16 12 9 6 6 4 5 7 3 6 6 11 16 19 19 23 23 21 21 19 18 18 16 15 14 16 13 12 17 20 21 22 20
6 7 9 10 8 11 12 13 17 13 15 14 10 7 7 5 6 7 8 8 7 9 11 9 18 20 17 19 23 22 23 23 21 19 19 20 19 19 12 2 8 11 15 19
7 7 7 7 7 4 11 12 16 12 16 10 7 5 3 0 1 5 9 6 9 9 11 10 10 19 18 19 22 22 24 25 30 26 22 24 25 25 22 16 13 13 13 17
3 7 12 5 7 8 10 5 12 12 9 8 6 3 2 2 3 7 9 12 11 12 12 13 13 9 16 15 18 21 23 23 27 33 31 28 29 30 28 25 22 19 18 18

GFSNGP_925_spd_075.txt.gz
Wind_Speed
3 8 9 12 14 9 16 17 13 20 19 17 15 16 18 14 13 13 14 15 14 14 15 18 17 22 24 18 19 19 18 12 8 11 14 16 18 20 21 20 21 21 21 21
10 5 5 5 6 6 8 5 8 20 19 16 13 14 12 12 13 13 13 11 12 14 16 17 18 16 20 19 19 18 18 17 15 8 7 14 16 18 19 22 22 22 22 23
14 13 4 10 12 10 8 6 11 14 18 11 12 10 8 10 11 10 10 10 9 11 13 13 12 12 12 14 17 17 16 16 18 17 10 12 11 17 18 21 22 24 25 24
12 9 13 4 1 4 6 5 8 13 13 14 11 8 7 11 8 8 8 8 8 11 10 10 9 10 11 12 11 13 14 15 19 18 16 11 14 17 17 19 20 23 25 26
11 9 5 8 7 7 12 10 2 12 10 10 9 10 10 8 7 7 7 7 9 10 11 10 10 10 10 12 9 10 12 14 17 18 19 18 16 14 18 18 21 22 23 25
7 9 14 13 11 4 2 10 10 7 7 6 7 10 11 5 5 7 8 9 9 10 10 9 10 11 12 11 12 12 14 14 15 15 16 18 18 20 21 20 21 22 23 27
8 7 1 10 7 5 9 6 10 7 6 3 2 9 6 5 5 6 7 9 11 11 11 11 12 13 12 12 12 13 15 16 16 16 17 15 15 15 20 21 22 22 23 25
8 10 10 12 6 6 10 10 10 7 6 5 5 4 4 5 5 7 7 8 9 11 13 14 14 14 14 14 14 16 18 19 19 18 17 17 18 18 17 18 21 18 21 23
4 3 5 5 3 8 6 8 5 6 7 4 4 4 3 3 5 6 7 8 9 9 11 12 14 15 17 17 18 19 21 22 22 22 21 19 18 19 19 19 19 17 21 17
2 7 6 9 7 6 4 4 5 5 6 5 3 2 1 3 5 6 8 9 11 13 12 12 14 16 18 20 20 21 23 25 25 25 25 23 22 22 21 22 19 18 18 15
10 9 4 10 10 8 7 6 6 6 4 3 2 2 1 1 2 6 8 11 13 14 14 17 16 18 19 19 21 24 25 26 27 27 27 26 25 24 23 23 22 19 20 19
7 6 9 10 15 12 11 10 9 8 7 6 4 3 2 2 5 5 7 8 11 13 16 17 18 20 20 19 20 23 26 26 25 26 27 27 26 27 26 27 25 29 30 32
11 12 6 5 3 12 12 11 11 9 8 5 6 6 5 2 5 5 8 9 11 11 15 17 19 20 20 21 21 23 25 26 27 28 27 28 27 28 28 26 26 28 30 31
13 8 8 7 7 9 12 12 9 10 10 9 9 7 5 6 6 7 9 10 11 12 13 15 19 22 23 23 23 24 26 28 29 28 29 31 31 29 30 29 27 27 26 27
9 9 10 11 9 13 13 13 11 10 11 12 13 9 8 7 9 9 9 10 12 13 13 17 19 23 23 23 24 25 26 27 26 25 26 29 33 31 30 31 31 30 29 28
11 9 12 8 10 12 12 12 12 11 12 11 12 8 7 6 5 8 8 9 10 12 16 17 19 23 25 27 27 27 26 26 27 28 28 28 29 32 34 32 32 31 30 30
11 13 16 14 12 12 13 12 14 14 15 13 13 11 8 7 7 9 4 8 9 12 15 15 22 24 26 26 26 26 26 26 26 28 28 28 28 30 31 32 33 31 32 30
9 6 7 6 13 14 14 16 15 14 15 17 14 12 10 10 9 8 4 10 13 14 15 20 21 26 26 25 25 26 27 28 27 27 28 29 29 28 31 31 34 34 33 32
11 10 12 21 17 13 16 17 20 19 17 18 15 14 12 14 8 7 8 8 15 11 15 19 22 24 26 26 27 26 25 26 27 27 28 29 30 31 31 32 31 32 35 36
15 14 11 12 16 14 13 18 20 19 23 23 18 13 15 13 10 11 9 9 9 6 14 14 18 21 25 26 27 24 23 24 25 26 26 25 26 27 29 33 33 31 32 36
8 8 10 13 14 15 18 20 19 20 18 22 20 18 17 14 9 8 9 11 5 5 11 8 14 18 23 24 23 21 22 22 23 23 24 23 24 26 27 31 31 31 31 33
4 9 13 14 14 14 17 17 19 22 18 25 19 16 18 12 10 9 11 7 4 3 10 9 12 16 20 21 19 21 22 23 22 21 21 21 21 22 23 26 29 29 30 35
12 9 10 12 11 12 13 14 16 15 12 16 21 21 19 14 15 9 7 11 6 3 9 9 11 13 16 17 18 20 24 27 23 21 20 21 21 22 23 25 28 30 31 33
11 10 10 10 11 13 13 14 16 19 14 18 27 21 16 13 8 9 3 5 7 10 12 11 12 14 16 13 16 19 21 21 24 22 19 19 19 20 21 22 25 27 28 30
9 9 9 9 9 12 17 18 18 13 6 6 7 5 9 4 3 4 5 8 5 8 14 8 14 15 15 13 14 14 22 20 23 21 18 19 18 18 16 17 17 16 22 24
8 12 14 10 8 11 15 13 8 9 14 10 5 17 9 9 5 1 4 2 9 7 11 8 10 13 15 16 10 12 16 21 20 21 18 15 17 17 17 17 15 13 8 3
5 8 16 12 7 13 19 14 11 13 14 12 14 6 5 5 4 3 5 8 11 9 9 13 11 10 13 14 11 11 13 18 22 19 20 19 18 21 22 21 21 18 18 17

GFSNGP_925_spd_078.txt.gz
Wind_Speed
7 9 16 11 20 17 10 14 9 18 19 17 14 13 13 12 12 14 16 15 13 11 14 17 19 16 17 14 16 17 17 20 6 13 16 12 14 15 18 20 22 21 21 21
11 11 10 16 4 2 11 12 10 20 18 20 21 16 14 12 12 13 13 15 13 14 15 14 16 13 15 20 14 13 14 15 15 3 6 8 10 16 16 19 20 21 23 22
10 12 8 10 8 1 5 10 20 10 15 16 15 14 14 13 12 12 13 11 13 13 15 14 14 14 14 15 16 18 17 12 14 14 12 7 8 11 15 19 19 21 22 23
11 5 12 11 6 5 11 4 14 21 13 14 15 10 14 13 11 10 10 10 10 13 13 11 12 12 14 12 13 13 12 14 15 13 12 13 14 12 7 13 16 20 21 23
11 9 4 7 4 9 13 7 10 14 14 15 12 15 11 9 8 8 7 11 10 10 8 8 10 8 9 9 10 9 13 15 17 19 15 11 11 14 13 11 12 20 22 23
9 14 14 10 8 3 4 8 9 12 10 12 10 10 10 9 7 9 9 9 8 8 7 9 10 10 10 9 9 9 12 15 15 16 17 18 16 16 18 15 14 14 19 24
9 8 6 13 5 2 8 2 12 6 8 4 5 8 12 9 8 8 8 9 7 7 8 9 10 11 11 11 11 13 14 15 16 17 18 18 17 17 15 18 18 20 20 23
9 11 4 9 4 4 8 11 9 9 7 6 9 9 8 7 6 6 5 6 6 7 8 8 9 10 10 12 16 17 19 19 18 18 18 18 20 21 21 19 19 19 21 23
3 3 5 4 6 8 8 10 8 8 8 8 8 7 6 6 5 6 4 5 5 7 7 8 9 11 11 12 14 16 17 18 20 22 22 21 21 21 20 19 20 21 20 19
5 4 5 6 4 3 2 7 5 6 9 7 8 7 6 5 4 5 6 5 7 8 8 9 11 11 13 16 17 17 18 19 20 20 23 25 24 22 22 20 20 22 20 20
8 11 6 4 8 8 6 5 7 6 7 7 5 6 5 5 3 6 2 4 5 6 8 9 11 13 14 16 18 20 21 21 22 21 21 22 22 23 24 25 24 24 26 22
6 7 6 11 10 11 10 10 10 11 8 7 7 5 6 4 7 0 3 2 6 8 8 9 11 12 15 16 16 18 21 22 22 24 23 23 25 28 29 31 32 30 36 34
5 8 11 12 13 14 14 13 13 11 13 11 11 8 9 6 5 3 7 4 7 8 9 10 12 13 15 17 18 18 20 21 23 25 25 25 24 26 29 30 29 32 31 31
12 8 11 13 6 7 10 14 14 14 13 12 10 12 11 7 11 3 6 3 5 8 9 10 12 16 18 18 19 19 20 22 23 24 24 25 26 26 26 27 27 28 30 30
12 9 6 6 5 10 13 16 12 11 11 12 11 12 10 8 7 4 4 2 3 6 6 9 12 16 18 19 21 22 22 20 21 23 25 26 28 29 30 30 31 32 32 27
7 6 1 7 13 10 13 11 13 12 14 16 16 14 16 13 11 7 9 1 4 4 7 7 8 14 19 22 23 23 22 23 22 23 24 26 26 28 28 27 30 30 30 30
6 9 8 11 9 3 8 9 11 13 15 15 11 13 16 16 15 13 10 8 3 3 9 3 7 10 17 19 22 23 23 24 24 25 24 25 26 28 28 30 30 30 31 32
8 7 9 7 5 12 10 13 16 19 12 15 16 15 18 17 15 11 8 5 5 7 10 3 3 11 12 16 19 22 23 24 23 23 24 25 27 29 29 30 31 31 32 34
8 7 9 16 27 23 19 17 18 18 20 19 18 19 18 19 19 14 10 9 11 10 12 5 5 8 11 13 17 19 21 23 24 24 24 26 27 28 29 30 31 31 32 32
9 15 10 8 6 18 8 14 14 13 19 15 18 17 17 19 19 17 12 11 15 12 8 7 5 8 10 12 17 15 18 21 23 24 26 25 25 28 28 30 31 29 28 30
0 5 9 11 6 10 15 17 19 19 26 25 20 32 23 23 21 21 14 14 12 12 9 8 7 8 11 13 15 14 16 20 22 23 25 25 26 26 27 29 29 26 26 26
1 7 11 8 7 9 12 14 17 15 13 17 19 9 3 8 14 18 16 12 10 16 11 8 7 9 9 12 14 14 16 20 22 22 23 25 25 25 26 28 28 28 30 30
10 13 12 12 11 12 13 11 12 14 15 16 12 9 14 18 19 13 14 16 11 16 11 12 11 13 16 13 14 13 15 17 21 22 24 24 25 26 27 27 28 29 31 31
10 9 6 8 9 13 13 16 17 16 15 14 13 10 16 17 18 20 8 18 12 12 12 13 10 14 16 13 14 13 14 15 20 20 23 24 24 25 26 26 27 28 28 30
5 7 9 9 9 11 15 20 21 18 16 4 2 13 20 13 13 7 8 12 15 12 12 3 7 8 11 14 13 10 9 10 15 17 21 22 23 23 24 24 25 26 27 25
6 9 9 11 8 10 12 16 15 7 9 14 14 7 11 20 25 11 7 6 8 11 8 4 4 6 8 11 10 12 8 8 10 17 19 21 22 22 22 22 23 21 19 18
8 12 11 11 7 9 13 16 13 11 13 15 14 8 4 6 6 1 1 4 5 4 5 5 3 5 7 10 11 10 4 6 8 13 20 18 21 21 21 20 19 17 15 16

GFSNGP_925_spd_084.txt.gz
Wind_Speed
6 7 5 3 8 14 2 5 4 11 14 16 13 13 9 9 11 10 8 9 8 6 10 11 13 11 11 11 9 9 10 11 6 7 4 3 5 3 8 17 23 25 22 21
6 6 9 7 14 12 6 9 11 14 9 12 11 12 9 9 10 10 9 9 7 9 9 10 10 14 15 12 10 10 10 9 8 2 3 8 10 12 13 14 15 21 25 23
1 4 3 5 7 8 5 6 16 8 9 16 15 14 14 13 12 11 9 9 7 7 12 12 11 17 21 18 18 14 9 7 7 4 1 3 10 8 10 17 16 16 23 22
1 5 4 4 6 7 8 5 9 17 20 17 16 12 7 9 11 10 7 7 7 10 14 15 13 9 13 18 19 18 17 16 17 10 6 4 7 9 7 8 11 11 13 18
3 1 5 2 5 2 5 5 11 15 15 13 13 14 6 10 11 10 7 14 18 22 22 22 21 20 23 21 20 19 18 17 16 14 12 12 9 10 14 12 12 13 11 14
2 2 3 3 2 5 10 1 2 15 18 22 19 9 6 9 14 15 22 24 23 21 21 20 19 19 20 19 18 17 14 13 13 12 11 11 12 11 11 13 13 13 14 16
1 2 4 4 7 3 6 6 5 12 20 19 6 6 8 12 11 20 24 25 23 20 20 17 14 14 19 16 16 12 11 10 10 10 11 11 12 12 14 14 15 15 15 15
2 2 4 4 5 4 4 4 5 6 6 11 15 17 15 13 10 18 22 21 20 20 17 13 11 11 14 15 11 9 9 10 11 12 12 12 13 14 13 15 16 15 16 16
5 5 6 4 5 4 5 5 3 10 8 15 16 14 12 11 12 17 24 22 20 19 17 16 13 12 15 11 10 11 11 12 12 11 12 13 14 16 18 17 19 18 18 19
4 3 3 3 3 4 4 7 8 8 9 11 11 11 11 8 13 18 23 21 18 16 15 12 12 12 10 9 10 10 11 12 13 15 15 15 14 14 15 17 18 19 21 21
2 5 1 3 4 7 5 6 7 7 8 9 13 10 11 11 16 21 23 19 17 15 12 11 9 9 8 9 11 12 12 11 13 15 16 16 16 16 15 13 14 20 19 21
5 6 5 5 2 3 9 8 8 8 5 10 12 10 19 15 23 26 24 23 19 15 14 11 8 6 6 8 11 13 13 13 14 15 16 16 20 24 19 15 18 18 16 18
4 5 5 6 5 3 7 7 9 11 13 10 16 22 21 17 25 27 28 24 21 20 16 10 4 3 4 6 11 12 13 14 16 15 16 18 20 21 23 28 23 20 20 22
5 5 2 2 4 2 3 15 20 21 24 25 25 25 27 25 24 27 28 25 22 21 16 10 5 3 1 6 10 10 12 13 14 17 18 19 22 24 22 19 23 26 24 24
5 6 6 4 4 5 9 12 9 10 12 13 26 26 27 22 22 26 30 27 26 22 18 14 10 7 3 5 8 10 12 13 15 17 18 20 22 24 24 23 22 24 26 25
3 1 5 5 4 2 2 4 10 7 9 16 19 23 28 29 30 31 33 32 30 26 22 17 15 11 6 0 4 7 8 10 11 14 16 18 21 21 21 22 24 24 25 25
3 4 2 3 4 1 3 3 1 12 9 17 21 30 28 29 32 32 36 37 32 29 25 23 21 16 10 4 1 5 5 6 10 14 18 20 21 21 22 24 24 26 27 27
7 6 6 6 6 6 5 4 5 6 6 15 9 16 24 25 25 29 34 39 31 29 26 21 19 18 13 7 3 2 3 4 7 11 14 16 17 18 20 22 23 25 28 30
7 7 7 7 10 8 8 5 4 5 3 9 8 10 15 20 24 28 34 35 33 31 30 24 21 18 15 9 6 6 5 7 9 12 13 15 16 16 17 20 23 25 27 29
7 6 3 4 7 8 8 9 9 13 13 18 13 1 5 10 16 14 13 26 38 38 33 26 23 20 16 9 10 11 10 9 12 14 16 18 21 21 20 21 23 25 25 27
6 7 2 3 6 7 9 11 10 15 22 24 19 13 12 22 15 25 21 18 17 19 24 25 24 21 17 12 13 15 13 12 14 15 16 18 20 19 19 21 21 22 26 27
11 8 7 7 5 4 6 7 6 3 4 12 18 17 20 22 24 21 21 19 17 15 16 20 23 22 18 17 18 19 17 16 19 19 19 17 19 19 19 20 20 21 24 27
6 6 6 7 7 6 7 9 10 10 10 9 6 13 17 17 19 17 12 22 29 33 25 21 27 26 22 21 22 22 19 17 19 22 22 20 20 21 20 20 22 25 26 28
7 7 9 8 7 11 12 15 17 17 15 14 15 15 12 13 14 20 21 30 28 28 28 30 29 25 19 23 23 20 18 18 22 22 23 21 20 21 22 23 22 24 26 27
13 11 10 9 9 7 8 10 14 16 15 11 9 14 16 15 14 13 17 21 28 25 28 27 27 22 18 17 16 16 17 19 24 25 24 22 20 22 19 19 19 22 25 26
13 12 9 8 6 4 5 7 12 15 16 12 10 4 8 12 10 15 16 16 21 26 25 25 27 23 20 18 17 18 18 19 20 21 23 21 20 21 17 17 20 22 25 27
14 12 14 9 4 4 6 4 4 6 16 25 23 17 14 11 12 11 10 12 12 15 21 23 21 22 19 20 17 17 19 16 14 16 20 21 21 18 15 15 17 19 24 25

GFSNGP_925_spd_087.txt.gz
Wind_Speed
1 6 6 5 6 10 4 4 4 6 9 11 8 8 7 5 7 5 8 8 6 5 7 6 8 9 9 8 10 11 10 10 13 6 7 7 5 2 4 5 10 15 16 19
5 3 8 8 13 13 7 5 8 10 0 6 6 7 6 6 7 8 8 7 9 9 10 9 10 10 10 9 7 8 8 9 4 7 2 2 6 5 4 8 10 14 16 17
1 5 6 6 5 6 2 5 6 5 6 14 10 10 8 7 6 8 9 8 7 7 10 12 13 15 17 14 12 13 13 11 8 6 4 2 3 6 6 7 8 10 12 10
2 3 2 5 5 4 9 5 3 7 16 13 11 6 6 6 7 9 9 8 7 11 15 13 15 17 18 20 22 21 21 19 15 13 10 6 5 4 6 7 9 12 13 13
3 1 3 3 2 4 3 4 8 13 11 9 9 6 5 4 3 5 8 14 16 18 19 20 22 21 22 21 20 19 19 17 14 13 12 12 12 11 10 7 9 9 13 14
2 3 4 4 6 7 3 3 9 15 16 14 12 5 5 6 7 11 17 21 23 22 23 23 19 18 19 18 18 18 15 13 12 11 10 9 9 9 9 11 10 11 11 12
1 2 4 5 6 7 6 4 4 14 19 18 14 4 8 9 9 19 23 23 20 20 21 18 14 12 18 16 17 12 10 9 9 10 10 11 10 10 9 10 9 11 11 8
2 3 3 2 5 1 4 2 0 6 13 16 7 12 14 12 12 18 21 21 22 22 19 15 14 12 15 15 10 9 8 8 10 11 10 10 11 11 11 11 11 10 13 12
5 5 5 4 3 2 2 3 2 6 5 8 14 13 14 12 13 18 23 22 20 20 17 13 12 9 12 9 7 8 7 8 8 8 10 10 11 12 13 13 14 15 15 16
4 3 4 3 1 1 3 4 6 9 12 10 11 11 8 9 11 16 22 24 23 22 18 15 11 9 9 8 7 7 8 8 9 10 10 11 11 11 11 13 14 15 16 18
2 4 4 3 3 5 4 5 6 7 12 16 15 11 10 7 14 17 23 25 24 21 20 17 13 9 7 6 6 7 7 7 9 10 11 12 12 14 12 8 9 13 15 16
5 6 5 5 3 3 6 8 9 8 6 8 18 15 18 16 20 25 26 24 21 19 19 17 13 9 6 5 6 6 6 6 8 8 9 11 13 14 12 12 12 9 9 12
4 6 5 2 4 2 5 7 7 10 12 12 16 21 22 17 26 29 26 24 20 19 16 15 12 9 7 4 4 4 5 6 6 7 8 10 13 16 19 18 14 13 15 15
4 6 1 3 3 5 2 5 11 17 20 25 27 25 27 24 22 27 30 30 25 21 19 16 13 11 9 4 3 5 6 5 6 8 10 12 14 15 16 18 21 21 20 19
6 6 4 2 2 5 5 4 3 6 9 9 23 28 27 23 24 30 33 31 28 25 22 18 16 14 11 6 4 5 6 7 7 9 11 12 14 15 15 16 18 20 24 25
4 4 3 4 6 4 2 1 3 6 7 15 19 24 31 34 34 34 35 33 29 29 28 24 20 16 14 9 6 5 5 5 6 9 12 15 17 17 17 15 15 15 17 21
5 3 1 1 4 3 4 4 5 4 6 4 6 14 26 27 26 27 32 38 37 33 31 29 25 20 17 13 7 5 4 3 2 6 10 13 16 19 21 20 19 18 19 19
5 3 5 5 5 5 6 6 5 6 6 9 4 3 11 17 23 29 36 39 34 30 33 31 26 24 21 16 10 9 4 1 2 4 7 11 14 18 21 22 24 24 25 24
7 6 6 6 5 6 7 6 7 9 7 7 4 3 6 14 23 21 23 27 30 28 37 35 30 27 24 19 13 11 8 4 3 5 7 10 13 16 19 22 23 26 26 25
4 4 6 3 3 6 7 8 9 10 12 10 9 6 1 1 6 18 20 23 28 34 27 34 32 31 26 21 17 14 12 11 8 9 10 10 12 14 17 20 21 23 23 22
7 5 3 4 3 3 6 7 9 12 15 14 15 16 20 20 22 14 17 16 33 37 29 24 34 33 27 24 21 20 19 17 15 15 15 14 14 14 15 17 17 17 20 19
8 6 6 6 7 8 12 12 12 11 11 10 11 17 17 20 25 22 22 21 26 31 35 28 37 34 27 25 24 23 21 20 18 17 18 18 17 16 16 17 20 19 20 21
6 6 6 7 8 6 8 12 14 14 15 15 15 15 14 21 21 15 13 24 19 23 28 32 34 28 20 19 23 22 22 21 20 19 19 19 19 19 19 19 22 22 24 24
9 7 6 6 6 8 10 12 14 15 16 17 17 18 18 14 14 17 20 18 24 28 32 33 30 24 19 28 25 22 22 22 21 21 22 21 22 22 21 20 20 23 23 25
9 8 6 4 6 6 6 6 10 22 20 13 9 12 14 16 15 11 11 17 17 22 22 25 24 24 25 23 23 22 22 22 20 20 23 24 25 25 23 21 20 22 23 25
10 7 7 9 7 3 1 1 7 18 21 14 15 13 7 5 8 6 6 10 17 20 17 21 22 20 19 21 22 21 20 20 21 23 24 24 23 24 23 20 20 20 21 22
9 10 10 6 4 2 1 5 5 4 13 14 16 19 17 13 11 11 9 8 9 8 7 10 15 16 20 23 24 23 21 22 23 24 25 22 21 22 22 20 19 19 19 19

GFSNGP_925_spd_093.txt.gz
Wind_Speed
11 11 11 12 8 5 5 3 5 1 4 1 12 11 10 8 6 5 4 4 4 4 4 5 8 18 18 17 18 19 19 16 17 14 10 5 5 6 6 5 4 5 7 8
2 2 3 10 10 10 8 4 2 2 3 1 10 9 9 9 8 7 6 4 5 6 6 6 8 14 18 18 19 17 14 14 15 13 10 7 6 7 5 5 6 5 3 4
3 4 2 3 5 7 5 3 1 2 3 9 12 10 11 11 10 9 8 8 7 8 10 10 10 13 17 16 16 17 15 13 12 12 11 10 7 7 6 5 4 5 6 7
3 3 7 4 3 2 5 3 1 1 4 10 11 8 7 7 9 10 9 9 10 12 14 13 16 18 19 18 19 19 17 15 13 12 9 7 6 6 4 3 5 5 6 7
3 3 2 6 4 2 2 2 2 3 9 12 12 10 6 8 8 10 10 12 13 14 16 16 19 20 22 21 20 19 16 14 12 11 10 9 8 7 6 4 5 5 6 9
2 3 4 4 1 5 4 4 4 6 10 14 14 8 6 12 12 13 14 14 14 14 16 17 16 19 21 18 17 16 13 12 11 10 9 8 7 6 6 6 6 8 11 10
3 2 1 1 4 3 4 3 1 6 8 11 6 4 5 13 13 16 14 16 16 16 14 16 14 13 14 11 12 10 10 9 9 8 8 8 6 6 7 7 8 9 10 9
2 2 5 4 1 2 3 2 3 6 8 9 2 5 12 14 14 16 15 15 16 17 15 11 10 9 11 9 8 8 8 8 8 7 5 6 5 5 6 6 7 6 6 5
4 1 1 2 2 1 1 3 3 4 7 9 8 9 11 12 14 16 16 14 12 13 12 9 8 8 10 8 6 6 7 7 7 6 7 6 5 5 5 6 6 4 5 4
3 4 4 3 3 3 2 2 3 1 6 11 10 12 11 11 13 15 14 14 12 12 10 9 6 6 8 7 6 6 6 6 6 6 6 6 5 5 5 5 5 4 5 5
3 5 4 7 6 2 3 1 3 5 5 9 13 14 15 13 16 16 16 13 13 12 11 10 10 8 7 7 6 6 6 5 5 5 5 6 7 6 5 6 5 4 4 4
4 6 6 2 3 5 4 3 1 4 7 9 13 14 19 16 18 20 20 19 17 14 13 12 10 9 8 7 6 7 6 5 5 4 4 4 5 7 9 8 6 6 5 5
2 3 4 2 3 3 4 3 3 4 2 6 10 14 19 18 21 21 19 19 20 19 15 15 14 12 10 8 6 6 6 7 6 5 5 5 5 6 6 6 9 9 8 8
3 6 4 5 3 5 6 5 2 2 5 5 6 9 11 16 17 21 23 27 20 18 17 17 15 13 12 10 8 7 7 9 7 6 6 6 6 6 5 5 5 5 7 9
8 4 0 7 6 6 4 3 2 0 2 4 7 11 12 15 17 25 26 21 19 18 17 17 17 15 15 13 11 10 9 8 8 8 7 7 7 6 6 6 6 6 6 7
7 7 3 4 6 3 1 1 1 1 1 3 5 8 14 19 21 21 18 19 24 25 24 21 19 16 17 15 13 11 9 10 9 8 8 6 6 5 5 5 6 6 7 9
8 7 7 5 3 3 3 2 1 1 2 3 5 7 8 12 16 17 20 24 26 24 24 24 24 19 20 18 16 14 13 12 10 7 7 6 6 5 5 4 5 5 5 6
4 6 6 6 6 5 4 2 2 3 4 4 4 5 7 8 13 16 20 23 23 25 23 24 22 23 24 22 20 16 15 15 14 10 9 7 5 4 3 3 4 5 5 6
6 7 7 7 6 5 3 0 2 2 3 4 4 4 7 9 11 14 13 16 20 23 25 20 24 28 26 26 24 19 17 16 14 12 11 9 7 5 3 1 1 3 5 6
9 8 8 7 6 5 3 3 3 3 3 6 8 6 8 9 8 10 11 15 18 19 17 10 17 22 27 26 29 21 19 17 15 13 12 10 8 6 5 5 4 4 4 6
12 12 11 11 11 11 8 7 8 7 6 6 8 8 10 12 12 10 10 11 18 21 22 15 17 22 30 32 30 26 21 20 18 15 12 10 8 7 6 5 6 6 6 6
12 11 11 10 9 8 7 8 9 8 9 10 11 11 13 14 13 14 18 18 14 13 13 11 19 25 31 30 31 30 27 21 18 15 13 11 9 8 8 8 8 8 9 8
11 11 10 9 7 7 7 7 8 8 9 11 12 13 12 13 14 13 11 14 17 18 15 15 12 14 31 34 37 34 28 23 16 15 13 12 10 9 9 9 10 10 11 11
11 9 9 7 7 8 7 6 7 8 11 11 12 12 12 11 11 11 15 15 13 12 20 21 26 28 28 29 37 31 29 24 19 15 14 14 12 11 10 10 11 11 12 12
9 9 7 7 10 8 5 2 4 6 10 12 13 14 14 13 8 7 4 6 9 8 7 11 15 20 30 31 32 33 31 22 17 20 14 11 12 12 12 12 12 11 11 12
10 7 6 9 7 6 2 2 4 5 5 8 10 13 14 14 10 5 2 1 2 3 5 7 8 17 24 25 24 26 25 27 27 21 16 13 13 14 14 13 13 12 12 12
8 9 10 8 7 4 1 3 5 6 5 6 9 10 11 10 11 12 6 7 8 6 3 8 16 17 19 21 24 25 21 20 18 15 15 16 17 17 16 15 14 14 14 13

GFSNGP_925_spd_096.txt.gz
Wind_Speed
6 8 7 8 12 14 16 16 9 8 10 7 10 10 11 10 9 8 7 8 6 3 1 1 3 14 19 17 17 15 16 16 15 14 15 12 7 6 5 5 6 9 11 10
8 5 7 9 5 4 3 5 5 5 4 3 9 9 11 11 8 8 6 6 6 5 5 5 6 10 12 14 14 15 13 14 13 12 10 11 7 5 4 4 1 2 6 7
9 3 4 8 6 5 5 2 3 10 8 6 9 9 10 10 10 8 8 8 7 6 6 6 8 11 14 18 20 20 17 14 14 13 9 8 8 5 4 4 4 4 2 3
7 3 9 7 4 4 8 6 5 2 3 6 9 9 7 7 9 10 10 8 8 8 9 9 11 16 15 17 19 18 16 13 11 9 7 6 8 7 5 2 2 2 5 5
4 13 5 6 4 1 3 6 5 5 5 9 11 10 7 6 7 9 9 13 11 11 11 11 12 14 18 18 15 17 14 12 11 9 9 6 6 4 3 3 4 5 4 6
4 6 8 11 5 2 2 5 4 4 7 9 11 9 8 10 10 11 12 12 14 16 15 15 13 15 18 18 17 13 10 9 9 8 7 6 6 6 4 5 5 6 5 4
7 5 2 5 2 0 7 5 4 1 5 8 5 5 6 11 11 13 13 15 15 14 14 14 13 17 17 14 14 11 10 8 7 7 6 6 4 5 4 5 6 5 5 4
2 4 4 3 4 4 5 5 5 2 3 5 6 5 12 12 12 14 15 16 14 15 13 11 10 10 11 11 8 9 7 7 4 5 3 3 4 5 4 4 5 5 4 4
3 3 5 4 8 5 4 5 6 4 4 5 6 8 12 11 12 14 16 15 16 15 13 11 8 8 9 9 8 6 6 6 5 3 2 3 3 3 3 3 5 6 6 5
3 8 5 5 4 4 3 5 5 5 2 7 8 10 12 12 13 15 16 15 13 12 11 10 8 7 7 7 6 6 4 5 5 5 4 2 2 2 2 3 3 4 4 4
6 3 3 6 4 4 4 3 4 4 3 4 7 9 11 12 15 16 16 15 14 13 12 11 10 9 8 8 7 6 5 4 4 4 4 4 3 2 2 1 2 1 1 1
4 3 6 1 7 7 5 4 3 4 4 3 5 7 11 12 15 16 17 17 15 13 13 13 12 11 9 8 7 6 6 6 5 5 5 5 5 5 5 3 3 2 2 5
6 2 4 3 4 5 5 4 4 3 2 3 3 4 9 10 13 13 14 15 16 15 13 12 11 10 10 9 8 7 6 6 6 6 5 5 6 7 6 4 6 4 3 3
4 5 5 7 5 5 6 5 4 1 2 2 2 5 6 9 11 15 18 20 17 16 15 15 15 13 12 10 8 8 8 9 7 6 6 6 5 5 4 6 6 4 3 4
8 6 2 8 8 8 7 4 2 2 2 2 2 5 7 8 11 15 17 18 17 17 18 19 18 16 14 12 11 10 9 9 8 7 7 7 6 5 5 4 4 3 4 2
8 7 7 10 9 8 5 3 3 1 2 3 5 5 6 7 11 13 13 16 19 23 26 23 20 17 17 16 13 12 11 10 10 9 8 8 7 7 5 4 5 4 4 2
9 11 9 8 8 5 3 2 0 1 1 1 2 3 5 7 9 12 14 16 20 23 22 21 20 19 21 20 19 15 13 13 12 10 9 8 8 7 6 5 4 2 3 2
5 7 11 9 6 5 5 5 3 2 2 3 4 5 6 6 8 9 10 13 17 20 23 21 21 22 23 22 21 17 16 15 15 13 11 10 9 7 7 6 4 3 2 2
9 10 10 9 7 6 5 3 1 0 2 3 5 7 7 8 8 9 10 11 13 16 19 22 24 26 24 24 23 19 18 17 16 14 12 11 10 9 8 7 6 4 3 2
10 10 10 10 7 5 5 2 1 1 2 4 6 9 12 13 12 12 12 13 13 14 10 15 20 24 24 24 27 22 21 20 18 17 15 14 13 11 10 8 6 6 6 4
11 12 11 11 10 9 7 5 3 2 4 6 8 10 13 16 17 17 15 15 14 12 12 14 20 22 23 24 28 27 23 21 20 19 18 17 14 12 11 10 9 8 8 7
12 12 12 11 9 7 5 4 3 4 5 7 8 9 12 15 16 18 20 18 19 9 12 14 17 21 29 30 31 29 25 24 23 20 18 17 15 14 12 11 10 9 8 8
11 10 9 8 7 6 5 3 4 5 5 7 9 10 11 13 14 16 15 15 17 15 17 15 14 17 23 29 34 36 33 28 25 21 20 19 17 14 12 11 11 9 9 9
11 11 9 7 6 6 6 4 5 5 6 5 9 9 10 11 13 11 14 15 16 11 15 15 13 14 18 22 30 26 30 31 26 22 20 13 12 13 13 12 11 11 10 9
11 10 8 7 9 8 6 4 4 1 1 3 6 8 8 7 8 11 10 11 9 10 11 12 17 19 22 24 24 27 31 34 33 30 20 12 10 13 17 14 13 12 11 10
12 9 7 9 8 8 5 3 2 1 4 4 6 8 10 9 11 8 7 7 4 2 4 5 7 10 13 19 24 25 24 25 31 29 23 23 21 16 14 13 13 13 13 12
10 7 9 10 10 8 4 1 3 2 3 5 5 5 7 8 7 10 8 9 10 7 6 4 1 3 10 14 16 21 25 24 20 25 26 26 18 16 15 15 14 14 14 14

GFSNGP_925_spd_102.txt.gz
Wind_Speed
17 7 16 19 16 16 17 18 11 2 17 17 12 15 11 9 9 10 9 8 7 9 9 9 15 16 14 14 15 13 13 11 12 13 12 11 12 11 13 16 13 9 11 12
16 10 17 19 21 17 22 15 13 15 6 10 17 16 14 13 8 9 10 11 8 7 7 9 6 6 19 17 17 17 16 15 13 13 10 8 10 10 11 13 10 9 9 7
11 17 14 15 15 15 12 11 10 15 6 11 9 12 7 15 14 10 11 10 9 7 8 9 5 6 10 11 18 18 16 12 10 8 6 3 2 2 4 8 9 6 4 6
6 10 8 10 13 8 16 6 20 14 21 14 9 15 12 9 17 14 13 12 9 13 11 7 7 8 9 14 16 16 15 14 11 10 7 5 5 3 2 2 5 5 6 4
3 3 9 6 11 13 7 13 18 11 9 22 22 13 12 12 16 16 11 14 15 12 11 10 10 11 14 15 17 18 15 13 12 9 7 4 2 1 2 3 2 1 3 4
4 2 4 6 13 25 4 6 12 15 8 14 8 8 11 15 15 16 24 18 16 13 13 13 11 14 18 18 19 18 17 15 13 13 10 8 5 5 4 2 2 4 6 4
2 4 5 4 8 19 8 3 5 10 13 17 13 10 16 20 18 21 21 21 17 14 13 13 13 16 19 17 16 14 12 11 9 10 8 6 3 3 3 3 5 5 6 1
6 9 6 6 10 2 5 2 9 9 12 12 9 11 14 14 15 19 18 18 16 16 15 14 15 15 16 15 14 14 13 12 10 8 6 5 4 3 2 3 4 5 3 2
7 3 6 9 6 5 7 5 6 7 7 10 6 7 12 11 13 13 13 14 15 17 16 14 13 13 14 16 13 10 10 9 8 6 5 7 3 4 2 2 2 5 6 5
3 11 10 7 5 4 7 6 4 6 4 4 7 6 8 10 10 12 12 13 15 15 14 12 9 10 11 13 12 10 8 7 7 7 6 6 2 2 6 4 5 4 6 5
3 7 6 4 4 6 7 2 3 4 6 6 6 7 8 8 7 11 13 13 13 13 13 13 12 11 11 11 9 8 6 5 5 5 6 5 2 3 3 2 2 5 3 5
1 5 7 2 8 3 5 3 2 3 2 5 4 3 6 6 17 16 12 10 13 12 12 12 12 13 12 10 10 10 9 8 8 9 9 11 8 3 3 2 5 8 5 1
2 4 4 1 6 6 5 4 5 2 5 2 4 2 4 14 13 14 13 11 11 10 13 14 11 11 10 10 9 8 7 3 7 7 12 11 11 12 9 5 7 7 8 7
2 2 2 6 5 3 3 5 4 1 7 2 4 1 1 11 15 12 10 12 12 11 11 15 12 12 11 10 10 9 8 7 7 7 9 7 8 9 8 13 11 7 4 2
4 5 5 6 6 7 5 5 6 8 6 5 3 1 0 1 7 10 9 9 9 11 11 12 14 13 13 12 11 10 9 9 10 9 8 7 6 8 9 8 4 15 9 5
6 7 8 5 8 8 7 5 3 3 4 2 5 6 7 7 6 6 6 8 12 17 17 19 20 18 18 15 14 13 13 13 9 11 8 6 8 8 9 8 7 8 11 13
7 8 7 6 8 6 3 4 3 5 7 4 3 4 4 4 6 8 10 12 11 6 8 21 24 18 23 23 18 16 15 13 15 12 12 9 12 11 11 9 9 9 7 12
6 5 4 6 7 6 6 7 5 3 3 6 7 4 5 6 7 8 9 11 13 12 10 11 11 23 23 27 25 20 18 16 15 17 15 14 15 13 12 10 10 9 11 11
7 8 10 7 13 10 9 5 5 6 3 0 1 5 7 9 10 10 10 11 12 13 15 14 12 12 19 22 23 23 20 20 18 16 17 16 17 14 14 13 13 11 10 14
6 5 15 14 14 10 9 9 7 6 11 6 5 7 9 10 13 14 14 15 16 16 20 19 19 16 13 21 26 24 22 21 19 19 18 17 17 17 17 16 15 14 13 12
10 16 14 13 11 9 8 6 3 1 2 2 3 5 7 8 10 11 13 14 14 16 17 18 12 13 13 16 21 28 27 22 17 18 19 19 18 18 18 17 16 13 11 13
17 16 13 11 11 7 6 4 3 2 0 1 2 4 6 8 6 8 10 12 16 16 16 16 17 15 15 13 14 20 24 25 19 7 7 16 20 17 18 18 16 16 17 16
14 12 13 11 11 11 7 5 5 3 3 2 1 3 4 6 6 9 11 13 15 18 19 18 20 15 17 14 13 13 14 17 22 24 18 14 6 8 7 16 14 15 13 12
14 14 11 11 9 9 7 5 9 6 4 3 4 4 7 7 11 13 16 17 15 18 17 18 18 14 11 13 11 9 8 11 11 12 19 25 24 17 9 9 9 12 12 10
17 13 11 9 9 9 9 8 7 8 8 10 7 7 4 2 5 8 8 10 13 14 13 12 9 9 10 11 11 10 9 10 10 10 11 17 21 20 19 8 3 6 4 3
12 12 13 11 11 12 11 13 11 10 4 5 4 3 6 6 1 5 5 6 9 12 11 11 9 6 5 8 10 10 12 10 10 12 11 15 20 21 18 12 6 6 6 6
14 13 14 11 12 11 8 6 4 5 6 7 4 7 8 8 2 5 1 2 8 10 9 10 10 7 4 6 6 7 9 14 14 15 15 17 20 22 21 18 12 10 11 14

GFSNGP_925_spd_105.txt.gz
Wind_Speed
6 10 8 13 13 8 8 8 2 6 7 7 4 8 10 7 10 12 12 10 10 12 13 14 23 20 25 23 18 17 14 11 9 11 11 9 7 9 9 9 8 6 7 4
6 13 13 6 10 13 11 10 12 20 7 3 6 12 8 8 7 7 9 9 7 5 10 10 12 19 23 23 19 15 15 14 11 10 9 7 6 8 8 10 9 7 8 5
1 11 11 6 12 16 7 23 2 6 10 12 5 10 8 13 8 8 13 11 6 7 8 12 13 11 12 20 18 13 14 13 12 9 8 7 6 6 5 4 3 3 5 3
2 7 2 4 9 12 11 17 19 12 11 12 15 10 6 4 13 13 11 10 9 10 10 10 10 12 13 16 17 16 13 13 12 16 15 12 9 7 7 9 8 10 8 4
3 1 5 4 7 9 9 6 16 13 9 8 11 6 7 14 12 11 8 13 16 15 13 10 11 14 18 21 21 22 20 19 17 15 12 10 9 7 6 6 9 9 9 7
3 4 2 6 11 11 11 5 9 8 12 16 3 9 8 15 16 16 17 16 16 15 14 14 13 13 16 18 19 19 16 16 14 15 14 11 9 10 8 8 10 15 12 5
4 2 4 7 8 9 4 3 2 9 7 15 13 3 10 13 13 19 18 18 17 14 14 14 13 15 18 16 17 14 13 13 13 13 10 9 8 7 7 8 10 9 7 4
4 2 2 3 8 3 5 3 4 12 5 10 17 10 13 11 11 17 17 15 14 14 14 15 16 17 18 17 14 12 12 11 11 10 10 8 7 7 8 10 12 10 6 3
6 6 7 5 4 3 5 7 5 6 17 14 16 18 16 12 10 14 18 18 16 15 14 11 10 12 16 15 13 12 11 11 10 9 9 8 8 8 6 6 5 4 3 2
5 3 6 5 5 9 7 7 7 8 8 8 12 16 17 12 8 15 17 19 18 15 12 11 10 10 14 14 12 10 9 8 7 7 7 6 5 4 4 6 4 6 3 3
4 6 6 6 6 8 8 8 7 8 8 9 7 11 13 15 14 16 19 20 18 16 13 11 11 10 12 12 11 9 8 7 7 6 6 6 5 4 5 5 3 3 4 4
3 7 6 6 8 9 7 3 7 8 9 10 12 7 12 8 18 21 19 21 19 18 17 13 11 13 13 12 11 11 9 8 7 7 10 8 6 4 2 3 4 6 4 3
3 6 6 7 8 7 6 6 7 8 9 8 15 14 18 13 17 20 24 20 18 20 20 17 14 11 9 8 9 9 8 5 10 11 11 12 12 8 6 4 3 4 5 6
8 8 5 6 6 7 8 11 10 12 10 11 10 14 13 15 18 17 13 15 14 13 24 22 18 16 13 11 10 10 10 7 3 8 9 9 18 15 12 11 8 4 2 2
7 5 3 6 9 6 12 13 7 1 5 9 11 15 13 8 6 9 9 11 13 13 18 20 17 17 16 14 13 12 11 11 9 12 6 9 5 8 5 12 12 9 7 4
7 4 2 3 8 9 9 7 3 4 8 16 18 19 18 17 16 16 16 14 3 9 15 22 23 25 24 23 20 17 15 14 10 12 12 10 9 8 7 8 16 18 15 10
6 5 4 5 8 7 8 8 11 9 13 16 17 15 15 15 14 14 13 14 14 12 3 7 14 18 20 25 24 22 19 17 17 14 13 14 12 14 12 11 12 19 17 16
6 9 7 9 8 9 7 10 16 18 18 17 13 11 12 12 13 15 14 15 14 13 11 8 7 8 10 20 25 23 20 16 19 20 19 13 15 15 15 14 11 12 21 21
14 10 13 15 16 15 15 13 17 18 16 14 17 15 13 14 13 13 15 15 15 16 15 18 19 16 11 11 15 24 22 19 17 29 23 22 15 18 16 15 13 9 19 20
11 16 21 17 21 18 13 23 21 21 18 17 13 11 10 10 11 11 12 12 14 14 17 16 18 19 18 13 12 18 25 24 21 17 28 23 21 18 20 13 14 15 18 18
11 17 18 19 19 20 18 17 19 18 14 13 11 10 9 7 5 5 6 9 14 15 19 22 19 17 16 14 11 15 20 23 18 7 26 24 20 17 21 20 17 15 14 19
16 15 19 20 18 19 18 18 16 13 13 13 11 7 2 4 6 4 4 6 9 14 17 20 22 19 20 18 15 14 15 20 19 13 3 9 15 21 14 19 20 18 20 13
17 19 18 18 19 20 19 16 11 10 13 9 10 4 4 6 6 6 6 9 11 15 18 18 17 19 17 13 11 9 13 14 14 16 17 11 9 5 6 4 1 9 23 22
18 20 20 23 23 18 14 14 16 11 9 8 10 10 9 9 3 3 4 8 11 16 14 15 18 14 12 12 13 11 9 10 7 5 4 12 17 18 19 12 13 7 5 9
20 20 22 21 17 15 17 17 18 13 13 13 15 16 13 10 6 3 2 2 7 13 13 14 16 13 9 9 9 11 11 10 8 7 5 6 10 16 21 20 19 13 5 10
18 14 18 18 16 16 20 17 14 19 19 16 19 17 4 5 10 7 7 3 5 9 10 12 15 12 10 9 7 7 7 8 8 6 5 5 7 10 14 20 23 26 20 13
17 17 18 15 13 12 23 23 18 13 14 7 7 1 4 10 11 8 12 5 2 2 6 5 10 12 14 18 11 6 4 4 6 8 11 9 8 10 14 18 19 21 23 22

GFSNGP_925_spd_108.txt.gz
Wind_Speed
2 4 5 10 15 15 6 4 5 5 6 6 9 10 9 9 8 9 11 10 10 8 10 15 17 13 18 20 22 25 25 26 22 18 16 18 17 12 10 10 8 4 7 10
5 7 8 5 19 14 10 13 4 5 2 3 11 12 10 12 13 10 12 8 7 9 12 15 15 18 15 17 22 23 22 21 19 17 15 14 10 9 10 10 9 9 9 7
1 5 4 7 10 11 1 11 6 4 3 7 6 9 7 8 10 12 13 11 10 8 9 14 15 17 29 20 26 23 20 18 16 15 14 10 9 8 6 7 8 9 11 10
1 5 4 5 4 0 6 10 11 8 7 4 5 5 6 7 11 8 9 9 10 10 10 10 11 21 31 26 29 25 20 21 17 15 13 10 8 8 7 6 10 13 12 10
3 1 1 3 3 2 4 5 8 7 10 7 8 16 12 10 9 10 9 10 12 12 9 7 6 13 19 25 22 20 20 20 18 21 18 13 10 10 9 10 14 12 9 7
2 4 5 6 4 1 2 2 1 3 9 13 9 8 4 7 10 11 17 13 11 12 11 10 9 8 16 21 24 23 24 24 23 20 17 15 13 10 9 12 13 12 11 6
1 1 4 5 4 4 4 3 7 3 5 15 14 7 4 4 8 13 14 14 12 10 10 10 9 12 16 16 19 16 16 17 17 16 15 14 13 12 11 15 16 14 9 7
2 1 1 6 2 6 4 1 7 4 7 11 15 12 6 6 5 11 12 11 9 12 11 8 7 11 14 14 13 12 12 13 14 12 11 11 10 11 13 17 16 13 11 8
8 5 5 5 3 5 4 6 4 6 6 11 11 9 12 9 8 12 12 13 10 11 11 8 9 9 14 12 11 11 11 11 9 8 7 6 8 8 10 12 14 12 10 11
3 3 4 4 8 5 4 8 5 5 6 14 14 13 9 9 8 10 12 14 13 12 9 7 8 9 11 12 10 10 11 9 8 8 6 5 4 5 6 5 5 6 4 6
2 2 3 3 6 8 9 10 11 12 6 10 11 10 12 9 12 17 19 18 15 13 11 9 8 8 9 9 9 9 8 8 7 6 5 5 4 5 5 4 4 3 2 3
5 6 4 4 5 8 9 7 8 10 11 7 11 11 9 8 13 15 16 20 17 15 11 10 8 10 9 8 6 4 4 5 5 5 6 6 4 4 3 3 2 1 2 3
5 6 7 8 7 5 7 8 8 9 12 9 10 17 16 10 17 21 18 21 21 19 14 11 8 6 5 5 4 3 2 1 4 7 9 9 9 8 6 4 3 1 2 4
7 8 6 6 6 7 10 10 17 16 19 19 18 15 16 16 15 22 21 22 20 18 17 16 14 13 11 9 9 9 8 8 7 11 12 13 14 15 13 9 7 5 3 1
8 6 6 6 8 8 17 15 8 8 14 18 23 22 18 15 10 5 2 8 10 19 20 20 19 18 15 14 14 14 15 14 13 10 11 9 13 15 18 17 14 9 8 5
7 8 8 7 9 9 9 7 12 9 12 15 20 24 24 24 23 21 21 12 10 2 14 18 19 17 18 18 17 16 15 15 13 13 12 13 11 11 12 12 13 13 13 10
7 6 5 6 9 8 9 14 15 13 15 18 21 22 24 26 25 22 18 15 15 14 13 9 4 5 8 20 24 23 20 16 14 15 14 16 14 15 14 12 11 14 17 16
9 8 8 11 9 11 8 12 20 20 19 24 24 24 23 23 18 16 14 12 13 14 11 11 12 12 13 11 12 24 25 21 18 18 19 20 19 16 16 15 14 13 19 19
16 10 16 17 19 17 17 18 20 23 25 26 26 23 21 18 15 14 12 13 13 13 13 14 13 12 12 11 14 16 23 25 23 24 24 23 21 20 21 18 17 15 18 22
9 18 23 18 21 26 18 21 26 27 25 26 22 19 18 14 13 12 11 10 8 9 12 15 18 17 14 13 11 17 17 20 25 29 27 29 29 26 25 22 19 17 18 22
11 18 19 20 20 23 27 29 28 24 21 20 19 16 13 9 8 5 6 6 6 9 15 18 18 18 16 14 15 13 17 16 17 21 24 28 25 26 30 24 23 18 21 24
16 17 19 24 23 23 27 27 26 25 23 20 16 11 8 8 4 3 4 2 7 10 15 15 13 16 15 16 15 14 14 14 14 16 21 20 19 23 25 22 25 25 21 20
19 21 23 24 25 26 28 26 24 23 19 14 11 9 11 8 5 11 4 1 7 12 14 12 15 17 14 14 13 12 11 14 16 15 18 15 17 20 12 10 5 10 18 21
22 23 24 24 26 25 20 24 24 20 16 13 11 9 9 8 6 10 5 0 5 11 13 14 15 15 13 12 12 13 14 14 13 10 8 9 18 15 16 15 14 9 5 6
25 25 26 24 20 17 27 27 23 18 14 14 14 13 12 11 11 13 9 4 1 7 10 14 15 16 15 14 13 11 10 10 8 7 5 8 9 14 15 12 14 17 18 14
22 20 24 28 25 30 30 27 22 19 17 16 15 16 15 15 16 16 13 7 4 1 4 6 11 13 15 19 19 11 9 4 3 5 8 8 8 8 10 14 17 19 20 22
23 24 23 19 24 27 27 25 23 20 19 19 17 13 12 12 19 19 16 13 10 6 2 3 5 5 7 12 16 14 8 4 4 7 11 13 12 8 8 8 9 13 17 20

GFSNGP_925_spd_111.txt.gz
Wind_Speed
4 1 6 0 5 9 6 3 5 4 6 5 2 7 7 8 10 12 14 18 15 11 10 19 16 20 16 20 21 14 16 23 22 24 26 26 27 24 17 14 6 6 8 11
2 2 8 3 10 6 6 6 5 6 5 5 6 5 5 7 11 13 14 13 11 14 13 16 17 18 19 16 14 19 17 24 29 28 32 33 28 15 11 9 7 10 10 9
4 6 8 4 5 6 1 5 4 5 2 6 7 9 8 9 8 9 4 6 6 3 11 19 22 16 15 16 15 14 18 22 22 19 17 15 13 12 11 10 11 13 11 10
2 4 5 4 2 4 2 2 6 5 5 6 6 10 13 10 9 8 9 8 6 8 10 13 14 16 13 13 11 12 16 18 23 23 19 15 14 13 12 11 12 11 11 9
3 1 5 3 3 1 2 3 3 3 8 9 11 14 12 13 11 9 7 9 10 11 9 6 2 1 10 16 15 12 15 19 25 24 19 16 13 11 8 11 14 14 12 9
2 3 6 5 1 2 4 3 2 4 7 7 2 7 3 8 7 7 10 11 10 8 9 10 9 6 9 14 14 17 22 26 22 20 20 17 14 10 8 10 13 13 12 8
2 2 6 6 5 2 3 5 5 3 9 6 7 4 7 7 6 6 7 10 9 11 12 11 11 10 16 15 14 13 15 16 21 19 16 13 11 8 10 15 15 13 11 8
2 1 3 1 2 4 5 2 7 4 5 15 13 11 12 13 4 5 7 8 11 14 13 11 11 12 15 17 12 13 15 14 16 13 11 10 7 8 9 14 16 14 10 9
6 5 5 5 4 3 4 4 4 6 6 6 8 8 6 7 10 6 9 9 14 15 14 11 10 9 13 11 10 12 12 12 11 11 9 8 8 5 8 10 12 10 8 6
2 2 1 4 4 4 2 4 6 4 10 6 8 7 8 4 8 12 13 12 12 14 11 10 9 10 12 10 10 11 12 11 10 9 9 7 6 5 6 7 6 6 5 6
1 2 4 3 3 6 6 6 7 6 7 7 8 6 6 4 5 6 12 13 13 13 10 9 8 10 8 7 6 8 8 8 7 6 6 6 6 5 5 5 5 5 4 5
5 8 5 6 4 5 9 6 6 6 5 5 7 8 8 6 14 18 16 15 12 13 13 11 7 7 7 7 6 5 5 5 4 4 4 4 4 5 4 3 3 2 2 2
5 6 3 7 7 3 10 7 6 6 11 10 9 13 14 8 10 12 13 12 10 10 10 11 11 11 10 8 6 5 4 5 3 3 4 4 4 3 2 2 3 3 3 4
6 9 5 4 6 7 11 9 15 13 14 14 12 12 11 12 10 9 7 9 8 6 6 6 7 6 5 6 6 6 6 4 4 2 8 8 9 10 9 8 6 5 5 4
7 4 7 7 8 7 15 16 10 7 8 12 15 17 17 14 9 6 4 4 5 7 8 8 7 4 4 6 7 8 9 8 8 7 6 7 8 10 13 14 13 10 8 8
5 8 9 8 9 9 10 10 12 6 8 12 18 21 24 26 24 22 17 12 10 5 1 4 4 5 7 10 13 15 14 13 10 9 10 11 11 11 11 13 15 16 14 12
8 6 5 5 8 9 9 11 14 12 13 17 20 26 26 25 22 20 18 16 17 18 16 13 9 6 5 6 9 18 21 19 16 13 14 15 13 13 13 13 14 15 17 15
11 10 11 13 9 8 7 15 20 22 20 23 26 27 24 22 18 16 15 13 12 11 11 10 8 7 8 10 11 12 15 20 22 21 20 19 20 19 17 16 16 17 16 16
10 9 11 15 19 17 17 17 20 23 28 29 25 20 24 22 19 15 12 12 10 6 5 6 8 11 12 12 13 14 15 18 20 22 24 25 23 21 22 19 20 19 17 16
7 11 17 18 21 23 18 20 26 25 26 28 28 25 23 19 16 15 13 11 7 4 4 8 10 11 12 13 13 13 13 16 18 20 22 25 27 25 25 27 26 25 21 21
9 15 17 20 18 20 25 30 29 24 27 29 28 25 22 18 16 13 10 8 4 5 8 11 11 10 12 12 12 14 15 16 16 17 19 20 21 25 27 24 23 25 24 25
13 14 17 22 23 21 27 30 31 30 27 24 22 22 20 17 13 10 8 6 5 6 10 9 9 12 13 12 11 11 12 12 12 14 16 18 21 23 24 24 25 24 20 26
15 20 22 23 24 26 30 31 31 30 27 23 20 19 22 18 13 14 7 5 4 6 8 8 9 10 10 10 11 11 12 12 13 15 17 18 18 19 17 12 9 7 8 9
19 21 21 22 28 27 20 26 28 25 22 18 16 20 21 16 10 10 5 6 4 4 8 12 14 13 14 15 13 12 11 11 11 13 12 10 11 16 18 12 11 14 12 17
23 22 24 26 22 18 22 29 25 22 20 20 18 17 14 12 9 9 11 9 5 2 4 5 7 9 14 18 18 17 13 11 10 8 7 10 15 14 13 13 16 15 13 17
21 21 25 30 28 30 30 30 24 24 21 20 18 15 13 11 12 12 14 13 9 5 3 1 2 7 9 11 14 15 11 8 7 9 11 14 15 15 14 11 11 11 8 10
18 21 19 16 22 30 31 29 26 24 23 21 19 17 15 15 16 15 16 17 14 10 7 7 7 8 9 8 9 10 10 9 7 8 11 15 16 14 12 8 6 6 8 11

GFSNGP_925_spd_114.txt.gz
Wind_Speed
5 3 6 8 4 7 1 3 4 5 4 5 7 5 4 4 7 10 11 12 10 9 10 19 23 23 24 24 20 24 28 29 27 20 13 12 12 13 19 16 15 13 14 15
1 3 4 1 8 3 4 4 1 4 2 3 5 5 8 6 5 6 7 9 8 7 12 15 15 18 16 15 14 14 18 24 22 15 14 13 17 20 20 21 20 15 9 8
5 6 4 4 0 3 1 4 3 2 3 5 6 9 6 5 6 7 6 5 7 3 7 14 18 21 18 15 16 18 19 15 15 20 21 13 20 23 26 19 15 13 12 14
2 0 4 4 1 5 2 2 4 4 2 6 10 10 11 9 8 9 7 6 5 7 8 6 11 17 16 17 20 20 16 15 17 18 17 18 20 20 18 18 17 17 15 10
3 3 3 4 6 5 4 5 3 5 5 9 12 11 11 9 9 9 8 7 8 9 8 7 7 12 16 13 13 14 17 17 20 19 18 21 24 23 21 16 14 12 9 7
3 2 4 4 2 4 5 5 3 5 9 11 2 8 2 5 8 9 10 10 10 10 9 10 6 7 12 15 19 15 11 11 13 15 15 19 16 12 9 12 13 13 11 8
1 2 6 5 1 3 3 6 5 9 4 5 5 4 9 7 9 10 10 12 14 14 13 10 7 9 12 17 11 10 13 8 5 7 17 18 17 14 10 12 14 13 11 8
2 1 3 1 1 5 4 2 4 2 1 2 7 11 8 8 6 7 9 12 14 17 16 12 11 14 18 20 14 12 13 12 5 6 8 14 13 11 13 15 16 15 12 8
6 5 5 4 5 3 4 3 3 5 6 3 12 10 6 6 5 6 9 10 16 18 18 16 15 15 19 15 14 14 17 18 14 13 7 9 8 9 10 13 16 14 11 8
2 3 3 4 4 2 4 3 4 4 6 5 6 7 5 5 7 6 8 11 15 15 17 18 16 17 16 13 15 16 19 19 15 12 10 8 7 6 8 10 10 10 8 7
1 3 4 3 3 3 4 7 6 7 5 5 6 6 5 5 7 8 11 14 13 12 15 15 15 15 12 12 11 14 15 14 13 12 10 10 8 6 5 6 6 6 6 6
5 8 5 5 3 0 5 6 8 8 7 6 5 6 10 6 10 10 12 11 10 8 11 11 12 12 10 9 10 11 12 10 8 8 8 8 7 7 5 4 3 2 2 1
3 6 5 6 6 1 4 7 6 7 8 8 9 12 11 7 8 9 9 7 8 8 8 9 9 8 7 8 8 8 9 8 6 5 4 4 4 3 3 1 0 1 2 2
3 7 6 5 6 6 3 8 8 8 11 11 13 13 14 11 10 11 10 9 9 8 7 8 8 7 5 4 4 4 4 5 5 6 4 2 2 2 4 4 5 3 4 4
9 4 7 8 9 7 6 9 8 7 7 10 15 18 17 14 11 6 5 7 7 7 7 7 6 5 3 1 0 1 3 3 4 5 4 4 6 7 8 9 11 11 9 8
5 5 9 10 10 8 7 5 8 6 5 10 14 16 16 18 16 13 10 8 10 10 8 9 9 7 3 1 3 6 7 8 7 6 7 8 9 10 10 11 12 13 14 15
8 5 5 7 12 9 11 8 9 8 10 14 17 25 28 27 24 22 21 21 20 19 15 13 11 9 9 9 9 9 9 9 10 11 13 12 11 11 11 12 14 15 15 15
10 11 13 16 13 9 7 8 15 19 17 24 27 26 23 21 20 20 17 16 16 14 12 10 9 8 9 10 11 12 12 13 14 13 14 16 17 15 15 16 16 18 19 17
8 10 11 15 20 16 16 16 17 19 24 27 25 20 20 20 18 15 12 11 10 9 8 8 9 10 10 10 11 11 12 14 14 15 15 15 15 17 17 16 19 21 20 20
5 7 13 15 19 21 16 18 24 24 25 28 25 24 21 17 15 13 10 10 8 6 6 8 9 9 9 10 11 11 13 13 14 15 15 15 15 16 18 18 19 20 23 23
9 12 13 16 17 21 23 31 29 22 23 27 27 24 24 19 17 17 14 9 5 3 6 7 7 8 10 10 11 11 12 13 14 15 15 15 16 17 18 20 21 22 23 24
9 11 14 18 20 20 24 25 24 26 28 27 25 25 24 21 18 14 11 9 7 3 4 5 6 8 8 9 10 10 11 12 12 13 13 15 17 18 19 19 20 21 21 23
16 17 20 20 21 23 27 28 29 32 30 28 27 25 25 24 20 17 10 9 6 4 6 7 8 9 10 11 11 11 10 10 11 11 13 15 14 13 15 17 18 16 12 9
16 17 17 21 26 24 18 23 30 31 29 26 25 23 25 22 18 14 8 11 7 4 6 8 7 8 11 13 15 16 13 11 11 11 11 11 12 16 17 15 13 11 10 11
20 21 22 23 21 18 22 29 29 27 23 21 21 23 24 21 20 19 13 13 9 7 6 3 3 3 6 10 13 13 13 12 10 11 12 14 18 20 17 15 13 12 13 13
20 19 23 28 26 27 28 31 23 26 24 22 22 27 24 20 15 10 12 14 13 11 10 9 6 4 3 4 6 7 8 8 10 10 12 17 19 19 15 13 10 9 9 9
16 20 20 16 20 26 31 28 25 26 28 28 28 27 24 21 18 15 14 14 18 17 14 12 11 9 8 7 7 8 8 9 10 12 13 17 17 14 12 9 8 8 6 5

GFSNGP_925_spd_117.txt.gz
Wind_Speed
4 1 6 3 8 7 1 4 6 3 6 8 9 7 4 2 7 10 12 17 17 16 15 17 18 16 14 18 25 20 23 21 23 26 24 20 18 13 8 12 6 4 4 8
4 7 5 5 5 5 3 4 8 6 4 5 9 3 2 6 8 11 11 12 12 10 13 15 19 14 13 13 17 23 19 20 24 25 22 20 17 15 13 11 9 6 7 8
6 5 2 6 9 7 1 5 4 4 5 7 5 3 3 3 5 7 8 9 9 10 9 11 13 18 13 11 12 13 10 9 16 23 25 19 13 13 14 12 14 14 10 10
1 6 11 4 3 8 7 5 6 5 4 1 4 4 8 8 7 8 8 7 7 10 10 10 13 19 18 19 17 12 12 14 17 21 17 20 19 15 15 12 12 10 12 13
3 7 2 6 7 7 9 5 6 4 3 6 4 9 7 8 9 8 9 8 8 6 9 10 10 12 20 19 20 16 19 19 19 23 22 18 15 16 13 10 13 15 16 13
3 3 4 0 3 2 5 4 8 9 9 11 5 4 2 4 7 8 11 10 9 10 11 9 4 8 12 17 14 14 15 14 15 18 18 16 15 16 12 15 17 16 14 11
3 4 4 4 0 2 3 1 3 9 10 11 3 3 9 6 7 8 9 10 9 11 13 10 7 8 8 10 9 11 10 9 5 0 7 11 10 10 12 13 15 13 13 11
2 3 5 2 2 4 2 2 1 8 6 7 8 11 7 8 8 8 10 10 10 12 13 14 12 15 17 16 9 8 8 7 9 9 11 10 9 8 10 14 18 16 12 10
5 2 2 3 7 5 4 2 1 10 12 13 14 9 6 8 8 9 11 10 10 12 15 15 18 20 21 15 13 12 12 12 14 16 13 14 9 7 10 13 16 13 9 9
2 1 3 4 6 4 4 2 7 13 15 15 13 9 8 8 8 9 10 10 10 12 15 16 16 19 20 18 18 19 19 17 17 17 16 10 9 3 8 8 9 10 10 7
2 3 3 3 2 1 5 10 13 11 12 12 13 12 11 9 9 9 9 8 9 12 16 15 13 15 16 14 14 16 16 17 18 17 17 12 8 7 9 7 7 6 5 3
1 8 2 5 5 5 7 10 14 12 12 12 13 12 14 11 13 11 9 9 11 12 13 12 13 14 16 14 11 13 13 11 12 12 12 10 10 11 9 8 6 5 4 2
2 7 1 5 5 2 4 9 10 11 13 14 14 15 14 14 12 10 10 13 14 13 13 13 12 13 14 14 14 14 13 11 9 8 7 7 6 6 5 4 4 2 0 1
4 11 4 8 7 7 4 8 10 10 10 13 16 14 14 14 12 9 9 11 11 12 11 12 11 11 10 11 10 10 10 10 7 6 4 3 2 1 0 1 1 2 4 4
11 5 6 10 9 8 8 10 10 10 11 13 14 16 13 14 12 9 7 9 10 9 9 9 9 8 6 6 6 5 5 4 4 3 2 1 1 2 4 4 5 6 6 7
13 4 10 15 14 10 9 9 10 10 10 13 15 15 13 13 13 10 10 10 10 8 8 9 10 8 6 5 5 5 5 4 3 3 2 2 2 3 3 4 6 6 8 8
15 7 9 12 14 14 13 10 10 10 12 14 15 16 17 16 16 15 15 15 16 15 13 11 10 9 8 7 7 5 3 3 3 4 5 6 6 6 6 6 7 8 10 9
15 17 18 17 15 13 11 12 14 16 16 17 19 19 18 17 16 15 14 14 14 12 9 8 8 7 7 6 6 5 5 5 5 6 6 5 6 7 7 8 10 10 11 11
13 13 17 18 21 20 17 16 17 16 20 22 23 19 17 17 17 16 14 12 10 9 5 5 5 5 5 6 5 5 5 5 5 5 5 7 7 7 8 8 9 11 11 12
11 12 14 17 17 20 18 15 17 19 21 23 20 20 18 16 16 15 12 10 8 7 5 3 4 4 4 4 5 5 6 6 7 7 7 8 7 8 9 9 9 11 12 14
13 14 16 17 18 19 20 22 23 21 22 21 23 22 20 18 16 15 13 9 6 5 5 6 5 5 5 5 5 4 4 5 5 6 6 6 7 8 9 11 12 13 15 16
14 13 15 16 18 19 20 21 20 21 23 20 18 19 18 15 12 10 8 9 6 6 5 5 6 8 7 9 8 7 6 6 6 7 7 8 8 9 9 10 11 12 13 13
16 18 18 18 19 20 21 22 22 24 25 26 25 23 18 17 16 15 12 11 7 6 6 7 8 10 10 11 10 9 9 9 8 8 8 9 9 11 14 14 13 12 12 12
14 15 16 16 18 21 19 20 21 22 23 28 28 24 21 18 14 11 10 13 10 9 8 7 7 6 8 10 11 12 11 9 9 9 9 11 12 15 19 16 13 11 10 11
16 17 18 20 20 18 20 23 22 21 21 19 18 17 16 16 19 17 13 13 12 10 8 7 5 2 3 5 6 5 5 6 7 7 8 10 12 13 13 12 12 11 10 10
18 16 17 21 20 21 23 25 23 23 22 18 16 16 17 17 14 17 16 14 13 12 9 8 7 5 3 2 2 4 5 5 6 6 8 8 10 11 11 11 9 8 9 10
11 13 14 13 14 17 22 25 23 22 22 21 18 18 20 19 17 15 15 13 14 13 11 9 9 8 7 6 7 7 7 7 7 7 9 9 9 10 11 9 8 9 9 9

GFSNGP_925_spd_123.txt.gz
Wind_Speed
16 18 15 15 7 8 21 37 16 9 12 7 8 17 5 3 4 10 9 14 9 8 7 8 5 13 11 16 23 22 21 21 21 20 18 17 14 15 15 15 14 13 13 13
13 17 16 14 14 27 33 18 2 18 12 7 13 5 7 7 9 9 13 15 16 17 16 17 15 17 18 13 10 14 16 16 17 18 15 15 15 15 15 15 15 13 12 10
14 12 11 16 14 15 18 18 4 10 12 18 14 9 8 12 4 5 11 5 9 14 16 20 19 19 18 16 14 11 13 16 13 12 14 15 17 18 18 17 15 13 11 12
12 14 16 8 9 2 32 16 13 22 5 12 7 9 10 12 12 10 13 14 11 6 10 17 17 19 17 15 14 11 12 13 11 9 9 10 14 16 16 14 15 13 13 13
11 13 13 10 5 16 20 19 16 19 4 9 12 11 8 10 10 9 10 9 10 10 7 15 17 19 19 13 9 9 10 9 7 4 5 6 8 15 15 12 10 11 13 13
12 9 5 11 8 5 32 10 12 14 7 3 5 6 5 5 6 6 20 11 11 11 7 7 10 18 17 15 12 12 9 6 3 0 4 5 10 13 14 16 16 18 18 14
12 9 8 3 16 9 7 4 17 4 6 8 7 6 9 8 7 10 19 12 9 11 9 8 2 9 17 14 14 13 12 8 2 3 0 7 10 12 7 3 8 10 10 12
6 3 8 6 2 7 5 6 13 16 14 15 14 14 11 11 8 11 16 12 10 10 10 13 9 11 16 14 13 16 12 10 11 10 10 9 5 8 11 10 8 9 11 9
5 3 3 2 7 3 7 8 5 10 8 15 14 13 13 12 12 13 16 15 14 13 18 20 15 15 18 12 12 17 18 14 11 13 12 12 12 14 14 12 10 12 10 11
4 7 4 2 1 2 2 4 8 6 12 14 14 13 12 11 11 13 16 13 15 17 18 17 22 22 19 14 12 15 18 17 15 17 16 11 11 12 11 8 8 7 9 11
8 6 4 5 4 8 7 9 8 10 11 12 13 13 13 11 11 14 16 12 14 16 16 15 15 17 19 21 22 24 21 19 16 15 14 14 13 11 10 10 8 8 6 6
2 3 8 7 10 10 8 8 10 12 12 12 12 13 13 11 14 15 14 14 14 16 16 15 15 15 15 13 12 15 16 14 13 14 12 13 16 15 13 12 11 10 7 4
2 2 9 10 8 14 13 10 8 12 13 14 16 16 16 14 14 15 15 15 15 15 16 15 16 16 13 12 13 15 14 11 8 11 10 11 10 9 10 8 7 5 3 2
3 7 7 11 8 10 12 11 14 16 17 17 18 18 18 17 15 15 15 16 15 15 15 15 13 12 12 11 11 11 11 9 11 9 8 7 7 6 6 5 7 6 3 1
8 8 10 9 11 9 12 14 14 11 10 15 18 19 17 17 17 17 16 16 14 14 14 12 12 10 9 8 8 6 6 7 6 6 6 5 4 4 4 5 4 3 2 3
10 9 9 13 12 10 11 11 16 15 7 11 14 16 17 17 16 15 13 12 11 13 11 10 9 7 5 4 1 6 6 4 4 1 3 2 2 1 3 5 5 6 4 6
13 11 11 13 14 12 11 10 10 12 19 15 17 16 15 15 13 13 10 10 11 11 10 9 8 6 5 3 2 1 2 4 1 5 3 2 3 4 5 5 6 6 8 4
11 11 13 13 14 13 11 10 10 14 16 24 20 18 16 16 14 15 13 12 12 10 9 8 5 4 3 2 3 2 3 3 3 3 3 2 5 6 5 5 6 7 8 3
14 12 14 14 16 15 12 12 13 12 15 22 21 19 19 17 18 17 15 12 9 6 4 4 5 3 1 3 1 2 1 1 2 2 2 1 4 2 5 6 7 8 9 11
14 15 17 16 15 18 16 17 17 16 16 18 22 21 20 19 18 17 15 10 4 9 8 5 3 2 2 0 2 1 2 2 3 4 5 4 7 5 5 5 7 11 12 14
16 14 14 16 16 18 20 20 21 20 22 22 22 21 21 20 18 17 14 10 8 8 8 8 6 6 6 5 4 3 3 4 3 4 4 5 5 6 7 8 10 12 13 13
14 14 15 19 18 18 21 21 23 24 24 23 22 22 22 21 19 15 11 6 11 11 9 8 6 3 6 5 2 5 4 4 3 3 4 3 3 4 6 8 12 13 13 12
19 19 20 20 19 20 21 23 24 26 25 25 25 25 24 22 20 17 12 11 12 14 9 9 9 11 10 5 6 7 6 5 5 4 3 2 3 4 7 8 9 9 8 8
17 17 20 23 23 22 16 22 24 25 25 25 26 26 24 20 16 14 13 18 16 17 12 14 14 14 9 9 8 6 6 5 4 3 3 1 4 5 7 8 9 8 9 8
17 19 19 21 18 17 22 23 23 23 24 24 25 25 23 20 17 16 16 18 20 18 15 18 16 14 8 9 8 8 7 5 3 2 1 1 3 4 6 8 10 9 8 10
15 18 21 21 22 22 23 24 22 24 25 24 24 26 24 20 15 18 19 20 21 19 18 18 15 13 10 10 8 7 6 7 6 4 2 2 2 3 4 6 7 8 9 9
15 16 18 19 22 23 23 24 22 23 26 26 25 27 26 22 19 19 20 20 20 20 19 17 17 15 13 11 9 8 7 7 6 3 3 4 4 5 4 5 6 6 7 9